Time,TemperatureF,DewpointF,PressureIn,WindDirection,WindDirectionDegrees,WindSpeedMPH,WindSpeedGustMPH,Humidity,HourlyPrecipIn,Conditions,Clouds,dailyrainin,SoftwareType,DateUTC
2013-06-12 00:02:00,60.0,57.1,29.63,North,1,6.0,6.0,90,0.00,,,0.00,Wunderground v.1.15,2013-06-12 04:02:00,
2013-06-12 00:03:00,60.0,57.1,29.63,ENE,63,1.0,6.0,90,0.00,,,0.00,Wunderground v.1.15,2013-06-12 04:03:00,
2013-06-12 00:04:00,59.9,57.0,29.63,NNW,339,0.0,6.0,90,0.00,,,0.00,Wunderground v.1.15,2013-06-12 04:04:00,
2013-06-12 00:05:00,59.9,57.0,29.63,NW,316,3.0,6.0,90,0.00,,,0.00,Wunderground v.1.15,2013-06-12 04:05:00,
2013-06-12 00:08:00,59.8,56.9,29.62,North,355,3.0,6.0,90,0.00,,,0.00,Wunderground v.1.15,2013-06-12 04:08:00,
2013-06-12 00:10:00,59.8,56.9,29.63,North,360,2.0,3.0,90,0.00,,,0.00,Wunderground v.1.15,2013-06-12 04:10:00,
2013-06-12 00:11:00,59.8,56.9,29.63,North,10,3.0,3.0,90,0.00,,,0.00,Wunderground v.1.15,2013-06-12 04:11:00,
2013-06-12 00:15:00,59.7,56.8,29.62,NNW,332,1.0,5.0,90,0.00,,,0.00,Wunderground v.1.15,2013-06-12 04:15:00,
2013-06-12 00:16:00,59.7,56.8,29.62,South,191,6.0,6.0,90,0.00,,,0.00,Wunderground v.1.15,2013-06-12 04:16:00,
2013-06-12 00:19:00,59.6,57.0,29.63,NNW,345,7.0,7.0,91,0.00,,,0.00,Wunderground v.1.15,2013-06-12 04:19:00,
2013-06-12 00:21:00,59.5,56.9,29.63,North,352,8.0,8.0,91,0.00,,,0.00,Wunderground v.1.15,2013-06-12 04:21:00,
2013-06-12 00:22:00,59.5,56.9,29.63,NNW,338,5.0,8.0,91,0.00,,,0.00,Wunderground v.1.15,2013-06-12 04:22:00,
2013-06-12 00:24:00,59.4,56.8,29.63,NNW,333,6.0,8.0,91,0.00,,,0.00,Wunderground v.1.15,2013-06-12 04:24:00,
2013-06-12 00:27:00,59.3,56.7,29.63,NE,46,4.0,8.0,91,0.00,,,0.00,Wunderground v.1.15,2013-06-12 04:27:00,
2013-06-12 00:29:00,59.2,56.6,29.63,North,359,5.0,8.0,91,0.00,,,0.00,Wunderground v.1.15,2013-06-12 04:29:00,
2013-06-12 00:30:00,59.2,56.6,29.63,NW,310,4.0,4.0,91,0.00,,,0.00,Wunderground v.1.15,2013-06-12 04:30:00,
2013-06-12 00:31:00,59.2,56.6,29.63,ENE,59,7.0,7.0,91,0.00,,,0.00,Wunderground v.1.15,2013-06-12 04:31:00,
2013-06-12 00:34:00,59.0,56.4,29.63,NNW,335,2.0,7.0,91,0.00,,,0.00,Wunderground v.1.15,2013-06-12 04:34:00,
2013-06-12 00:36:00,59.0,56.4,29.63,NNW,348,8.0,8.0,91,0.00,,,0.00,Wunderground v.1.15,2013-06-12 04:36:00,
2013-06-12 00:38:00,58.9,56.6,29.63,WNW,285,6.0,8.0,92,0.00,,,0.00,Wunderground v.1.15,2013-06-12 04:38:00,
2013-06-12 00:41:00,58.8,56.2,29.62,NNW,328,9.0,9.0,91,0.00,,,0.00,Wunderground v.1.15,2013-06-12 04:41:00,
2013-06-12 00:43:00,58.7,56.1,29.62,NE,41,2.0,9.0,91,0.00,,,0.00,Wunderground v.1.15,2013-06-12 04:43:00,
2013-06-12 00:44:00,58.7,56.4,29.62,NE,56,5.0,9.0,92,0.00,,,0.00,Wunderground v.1.15,2013-06-12 04:44:00,
2013-06-12 00:45:00,58.7,56.1,29.62,NW,311,2.0,9.0,91,0.00,,,0.00,Wunderground v.1.15,2013-06-12 04:45:00,
2013-06-12 00:49:00,58.6,56.0,29.63,NNE,25,2.0,9.0,91,0.00,,,0.00,Wunderground v.1.15,2013-06-12 04:49:00,
2013-06-12 00:51:00,58.6,56.0,29.63,ENE,63,2.0,4.0,91,0.00,,,0.00,Wunderground v.1.15,2013-06-12 04:51:00,
2013-06-12 00:54:00,58.6,56.0,29.63,NNW,331,3.0,4.0,91,0.00,,,0.00,Wunderground v.1.15,2013-06-12 04:54:00,
2013-06-12 00:55:00,58.5,55.9,29.62,NW,323,1.0,4.0,91,0.00,,,0.00,Wunderground v.1.15,2013-06-12 04:55:00,
2013-06-12 00:56:00,58.5,55.9,29.63,North,11,2.0,4.0,91,0.00,,,0.00,Wunderground v.1.15,2013-06-12 04:56:00,
2013-06-12 01:02:00,58.4,55.8,29.62,NW,319,3.0,3.0,91,0.00,,,0.00,Wunderground v.1.15,2013-06-12 05:02:00,
2013-06-12 01:03:00,58.3,55.7,29.62,NNW,344,4.0,4.0,91,0.00,,,0.00,Wunderground v.1.15,2013-06-12 05:03:00,
2013-06-12 01:07:00,58.2,55.6,29.62,NNW,345,2.0,11.0,91,0.00,,,0.00,Wunderground v.1.15,2013-06-12 05:07:00,
2013-06-12 01:08:00,58.2,55.6,29.62,East,82,3.0,11.0,91,0.00,,,0.00,Wunderground v.1.15,2013-06-12 05:08:00,
2013-06-12 01:09:00,58.2,55.6,29.62,NNW,336,2.0,11.0,91,0.00,,,0.00,Wunderground v.1.15,2013-06-12 05:09:00,
2013-06-12 01:11:00,58.1,55.5,29.62,NW,316,1.0,4.0,91,0.00,,,0.00,Wunderground v.1.15,2013-06-12 05:11:00,
2013-06-12 01:14:00,58.1,55.5,29.62,NNE,14,5.0,5.0,91,0.00,,,0.00,Wunderground v.1.15,2013-06-12 05:14:00,
2013-06-12 01:16:00,58.0,55.4,29.62,NNE,18,0.0,5.0,91,0.00,,,0.00,Wunderground v.1.15,2013-06-12 05:16:00,
2013-06-12 01:17:00,58.0,55.4,29.62,NNW,343,1.0,5.0,91,0.00,,,0.00,Wunderground v.1.15,2013-06-12 05:17:00,
2013-06-12 01:22:00,57.8,55.2,29.62,East,92,0.0,4.0,91,0.00,,,0.00,Wunderground v.1.15,2013-06-12 05:22:00,
2013-06-12 01:23:00,57.7,55.1,29.62,NW,316,0.0,4.0,91,0.00,,,0.00,Wunderground v.1.15,2013-06-12 05:23:00,
2013-06-12 01:24:00,57.7,55.1,29.62,North,350,2.0,4.0,91,0.00,,,0.00,Wunderground v.1.15,2013-06-12 05:24:00,
2013-06-12 01:26:00,57.6,55.0,29.62,North,360,6.0,6.0,91,0.00,,,0.00,Wunderground v.1.15,2013-06-12 05:26:00,
2013-06-12 01:27:00,57.6,55.0,29.62,NE,42,6.0,6.0,91,0.00,,,0.00,Wunderground v.1.15,2013-06-12 05:27:00,
2013-06-12 01:28:00,57.6,55.0,29.62,NW,318,2.0,6.0,91,0.00,,,0.00,Wunderground v.1.15,2013-06-12 05:28:00,
2013-06-12 01:30:00,57.6,55.0,29.62,NNE,16,5.0,5.0,91,0.00,,,0.00,Wunderground v.1.15,2013-06-12 05:30:00,
2013-06-12 01:33:00,57.5,54.9,29.61,NNE,23,1.0,5.0,91,0.00,,,0.00,Wunderground v.1.15,2013-06-12 05:33:00,
2013-06-12 01:36:00,57.5,54.9,29.61,NNE,26,6.0,6.0,91,0.00,,,0.00,Wunderground v.1.15,2013-06-12 05:36:00,
2013-06-12 01:40:00,57.4,54.8,29.61,NNE,18,3.0,4.0,91,0.00,,,0.00,Wunderground v.1.15,2013-06-12 05:40:00,
2013-06-12 01:41:00,57.4,54.8,29.61,NNW,343,1.0,4.0,91,0.00,,,0.00,Wunderground v.1.15,2013-06-12 05:41:00,
2013-06-12 01:42:00,57.4,54.8,29.61,NW,311,4.0,4.0,91,0.00,,,0.00,Wunderground v.1.15,2013-06-12 05:42:00,
2013-06-12 01:47:00,57.3,54.7,29.62,NW,308,2.0,6.0,91,0.00,,,0.00,Wunderground v.1.15,2013-06-12 05:47:00,
2013-06-12 01:48:00,57.3,54.7,29.61,North,11,2.0,6.0,91,0.00,,,0.00,Wunderground v.1.15,2013-06-12 05:48:00,
2013-06-12 01:49:00,57.3,54.7,29.61,NE,43,3.0,6.0,91,0.00,,,0.00,Wunderground v.1.15,2013-06-12 05:49:00,
2013-06-12 01:50:00,57.3,54.7,29.61,NE,42,1.0,2.0,91,0.00,,,0.00,Wunderground v.1.15,2013-06-12 05:50:00,
2013-06-12 01:53:00,57.2,54.6,29.61,NNW,342,3.0,3.0,91,0.00,,,0.00,Wunderground v.1.15,2013-06-12 05:53:00,
2013-06-12 01:54:00,57.2,54.6,29.61,NNW,332,1.0,3.0,91,0.00,,,0.00,Wunderground v.1.15,2013-06-12 05:54:00,
2013-06-12 01:55:00,57.2,54.6,29.61,NE,37,2.0,3.0,91,0.00,,,0.00,Wunderground v.1.15,2013-06-12 05:55:00,
2013-06-12 01:58:00,57.2,54.6,29.61,NE,41,2.0,3.0,91,0.00,,,0.00,Wunderground v.1.15,2013-06-12 05:58:00,
2013-06-12 01:59:00,57.2,54.6,29.61,ENE,61,3.0,3.0,91,0.00,,,0.00,Wunderground v.1.15,2013-06-12 05:59:00,
2013-06-12 02:01:00,57.1,54.5,29.61,North,359,1.0,3.0,91,0.00,,,0.00,Wunderground v.1.15,2013-06-12 06:01:00,
2013-06-12 02:02:00,57.2,54.6,29.61,NNW,340,1.0,3.0,91,0.00,,,0.00,Wunderground v.1.15,2013-06-12 06:02:00,
2013-06-12 02:03:00,57.1,54.5,29.61,WNW,297,6.0,7.0,91,0.00,,,0.00,Wunderground v.1.15,2013-06-12 06:03:00,
2013-06-12 02:04:00,57.1,54.5,29.61,NNE,32,2.0,7.0,91,0.00,,,0.00,Wunderground v.1.15,2013-06-12 06:04:00,
2013-06-12 02:06:00,57.1,54.5,29.61,NNW,347,1.0,7.0,91,0.00,,,0.00,Wunderground v.1.15,2013-06-12 06:06:00,
2013-06-12 02:07:00,57.1,54.5,29.61,NNW,347,3.0,7.0,91,0.00,,,0.00,Wunderground v.1.15,2013-06-12 06:07:00,
2013-06-12 02:08:00,57.0,54.4,29.61,NNE,18,3.0,7.0,91,0.00,,,0.00,Wunderground v.1.15,2013-06-12 06:08:00,
2013-06-12 02:09:00,57.0,54.4,29.61,North,349,3.0,7.0,91,0.00,,,0.00,Wunderground v.1.15,2013-06-12 06:09:00,
2013-06-12 02:12:00,57.0,54.4,29.61,ENE,73,0.0,3.0,91,0.00,,,0.00,Wunderground v.1.15,2013-06-12 06:12:00,
2013-06-12 02:13:00,56.9,54.3,29.61,WNW,300,0.0,3.0,91,0.00,,,0.00,Wunderground v.1.15,2013-06-12 06:13:00,
2013-06-12 02:14:00,56.9,54.3,29.61,NW,317,1.0,4.0,91,0.00,,,0.00,Wunderground v.1.15,2013-06-12 06:14:00,
2013-06-12 02:17:00,56.8,54.2,29.61,North,356,3.0,6.0,91,0.00,,,0.00,Wunderground v.1.15,2013-06-12 06:17:00,
2013-06-12 02:18:00,56.8,54.2,29.61,NNW,348,3.0,6.0,91,0.00,,,0.00,Wunderground v.1.15,2013-06-12 06:18:00,
2013-06-12 02:19:00,56.9,54.3,29.61,NNW,346,7.0,7.0,91,0.00,,,0.00,Wunderground v.1.15,2013-06-12 06:19:00,
2013-06-12 02:22:00,56.9,54.3,29.61,NW,322,4.0,6.0,91,0.00,,,0.00,Wunderground v.1.15,2013-06-12 06:22:00,
2013-06-12 02:23:00,56.9,54.3,29.61,NE,45,7.0,12.0,91,0.00,,,0.00,Wunderground v.1.15,2013-06-12 06:23:00,
2013-06-12 02:24:00,56.9,54.3,29.61,ENE,72,2.0,12.0,91,0.00,,,0.00,Wunderground v.1.15,2013-06-12 06:24:00,
2013-06-12 02:27:00,57.0,54.4,29.61,North,354,6.0,12.0,91,0.00,,,0.00,Wunderground v.1.15,2013-06-12 06:27:00,
2013-06-12 02:28:00,57.0,54.4,29.61,NW,318,4.0,12.0,91,0.00,,,0.00,Wunderground v.1.15,2013-06-12 06:28:00,
2013-06-12 02:29:00,57.0,54.4,29.61,ENE,60,4.0,12.0,91,0.00,,,0.00,Wunderground v.1.15,2013-06-12 06:29:00,
2013-06-12 02:30:00,57.0,54.4,29.61,SW,231,7.0,12.0,91,0.00,,,0.00,Wunderground v.1.15,2013-06-12 06:30:00,
2013-06-12 02:32:00,57.0,54.4,29.61,North,349,4.0,10.0,91,0.00,,,0.00,Wunderground v.1.15,2013-06-12 06:32:00,
2013-06-12 02:33:00,57.1,54.5,29.61,North,350,4.0,10.0,91,0.00,,,0.00,Wunderground v.1.15,2013-06-12 06:33:00,
2013-06-12 02:34:00,57.0,54.4,29.61,ENE,60,6.0,10.0,91,0.00,,,0.00,Wunderground v.1.15,2013-06-12 06:34:00,
2013-06-12 02:35:00,57.0,54.4,29.61,NW,323,3.0,10.0,91,0.00,,,0.00,Wunderground v.1.15,2013-06-12 06:35:00,
2013-06-12 02:37:00,57.0,54.4,29.61,North,352,4.0,10.0,91,0.00,,,0.00,Wunderground v.1.15,2013-06-12 06:37:00,
2013-06-12 02:38:00,57.0,54.4,29.61,ENE,58,1.0,10.0,91,0.00,,,0.00,Wunderground v.1.15,2013-06-12 06:38:00,
2013-06-12 02:40:00,57.0,54.4,29.60,NW,318,1.0,10.0,91,0.00,,,0.00,Wunderground v.1.15,2013-06-12 06:40:00,
2013-06-12 02:42:00,56.9,54.3,29.61,NE,44,2.0,11.0,91,0.00,,,0.00,Wunderground v.1.15,2013-06-12 06:42:00,
2013-06-12 02:43:00,57.0,54.4,29.61,NW,315,4.0,11.0,91,0.00,,,0.00,Wunderground v.1.15,2013-06-12 06:43:00,
2013-06-12 02:45:00,56.9,54.3,29.61,North,10,2.0,11.0,91,0.00,,,0.00,Wunderground v.1.15,2013-06-12 06:45:00,
2013-06-12 02:47:00,56.9,54.3,29.60,North,1,2.0,11.0,91,0.00,,,0.00,Wunderground v.1.15,2013-06-12 06:47:00,
2013-06-12 02:48:00,56.8,54.2,29.61,ENE,64,5.0,11.0,91,0.00,,,0.00,Wunderground v.1.15,2013-06-12 06:48:00,
2013-06-12 02:50:00,56.8,54.2,29.60,NW,319,8.0,8.0,91,0.00,,,0.00,Wunderground v.1.15,2013-06-12 06:50:00,
2013-06-12 02:52:00,56.9,54.3,29.60,NNE,30,4.0,12.0,91,0.00,,,0.01,Wunderground v.1.15,2013-06-12 06:52:00,
2013-06-12 02:53:00,56.9,54.3,29.60,NNW,340,3.0,12.0,91,0.00,,,0.01,Wunderground v.1.15,2013-06-12 06:53:00,
2013-06-12 02:55:00,56.9,54.3,29.61,NE,53,2.0,12.0,91,0.00,,,0.01,Wunderground v.1.15,2013-06-12 06:55:00,
2013-06-12 02:58:00,57.0,54.1,29.61,ENE,65,3.0,12.0,90,0.00,,,0.01,Wunderground v.1.15,2013-06-12 06:58:00,
2013-06-12 02:59:00,57.0,54.1,29.61,NNE,27,7.0,12.0,90,0.00,,,0.01,Wunderground v.1.15,2013-06-12 06:59:00,
2013-06-12 03:00:00,57.0,54.1,29.61,NNW,341,5.0,8.0,90,0.00,,,0.01,Wunderground v.1.15,2013-06-12 07:00:00,
2013-06-12 03:01:00,57.0,54.1,29.61,NNE,28,6.0,12.0,90,0.00,,,0.01,Wunderground v.1.15,2013-06-12 07:01:00,
2013-06-12 03:03:00,57.0,54.1,29.61,NE,45,6.0,12.0,90,0.00,,,0.01,Wunderground v.1.15,2013-06-12 07:03:00,
2013-06-12 03:04:00,57.0,54.1,29.61,NNE,21,3.0,12.0,90,0.00,,,0.01,Wunderground v.1.15,2013-06-12 07:04:00,
2013-06-12 03:05:00,57.0,54.1,29.61,NW,326,3.0,12.0,90,0.00,,,0.01,Wunderground v.1.15,2013-06-12 07:05:00,
2013-06-12 03:06:00,57.0,54.1,29.61,North,350,9.0,12.0,90,0.00,,,0.01,Wunderground v.1.15,2013-06-12 07:06:00,
2013-06-12 03:08:00,57.0,54.1,29.61,North,349,5.0,12.0,90,0.00,,,0.01,Wunderground v.1.15,2013-06-12 07:08:00,
2013-06-12 03:09:00,57.0,54.1,29.61,NW,316,6.0,12.0,90,0.00,,,0.01,Wunderground v.1.15,2013-06-12 07:09:00,
2013-06-12 03:10:00,57.0,54.1,29.61,NW,316,2.0,4.0,90,0.00,,,0.01,Wunderground v.1.15,2013-06-12 07:10:00,
2013-06-12 03:11:00,56.9,54.0,29.61,NW,310,1.0,4.0,90,0.00,,,0.01,Wunderground v.1.15,2013-06-12 07:11:00,
2013-06-12 03:13:00,56.8,53.9,29.61,NNE,29,3.0,7.0,90,0.00,,,0.01,Wunderground v.1.15,2013-06-12 07:13:00,
2013-06-12 03:14:00,56.8,53.9,29.61,NW,320,4.0,7.0,90,0.00,,,0.01,Wunderground v.1.15,2013-06-12 07:14:00,
2013-06-12 03:16:00,56.8,53.9,29.61,NNW,329,3.0,7.0,90,0.00,,,0.01,Wunderground v.1.15,2013-06-12 07:16:00,
2013-06-12 03:18:00,56.8,53.9,29.61,NNW,340,1.0,12.0,90,0.00,,,0.01,Wunderground v.1.15,2013-06-12 07:18:00,
2013-06-12 03:19:00,56.7,53.8,29.61,North,8,6.0,12.0,90,0.00,,,0.01,Wunderground v.1.15,2013-06-12 07:19:00,
2013-06-12 03:21:00,56.7,53.8,29.61,NE,49,3.0,6.0,90,0.00,,,0.01,Wunderground v.1.15,2013-06-12 07:21:00,
2013-06-12 03:22:00,56.7,53.8,29.61,NNW,344,2.0,7.0,90,0.00,,,0.01,Wunderground v.1.15,2013-06-12 07:22:00,
2013-06-12 03:24:00,56.6,53.7,29.61,WNW,294,3.0,8.0,90,0.00,,,0.01,Wunderground v.1.15,2013-06-12 07:24:00,
2013-06-12 03:26:00,56.6,54.0,29.61,NW,320,2.0,10.0,91,0.00,,,0.01,Wunderground v.1.15,2013-06-12 07:26:00,
2013-06-12 03:27:00,56.6,53.7,29.61,NW,321,4.0,10.0,90,0.00,,,0.01,Wunderground v.1.15,2013-06-12 07:27:00,
2013-06-12 03:29:00,56.6,53.7,29.61,NNW,348,3.0,10.0,90,0.00,,,0.01,Wunderground v.1.15,2013-06-12 07:29:00,
2013-06-12 03:30:00,56.6,53.7,29.61,NNW,348,7.0,7.0,90,0.00,,,0.01,Wunderground v.1.15,2013-06-12 07:30:00,
2013-06-12 03:32:00,56.6,53.7,29.61,NNW,342,3.0,8.0,90,0.00,,,0.01,Wunderground v.1.15,2013-06-12 07:32:00,
2013-06-12 03:34:00,56.6,53.7,29.61,NNW,344,3.0,11.0,90,0.00,,,0.01,Wunderground v.1.15,2013-06-12 07:34:00,
2013-06-12 03:36:00,56.6,53.7,29.61,NW,320,2.0,11.0,90,0.00,,,0.01,Wunderground v.1.15,2013-06-12 07:36:00,
2013-06-12 03:37:00,56.6,53.7,29.60,East,100,1.0,11.0,90,0.00,,,0.01,Wunderground v.1.15,2013-06-12 07:37:00,
2013-06-12 03:39:00,56.5,53.6,29.61,NNW,335,6.0,11.0,90,0.00,,,0.01,Wunderground v.1.15,2013-06-12 07:39:00,
2013-06-12 03:40:00,56.5,53.6,29.61,NNW,345,5.0,11.0,90,0.00,,,0.01,Wunderground v.1.15,2013-06-12 07:40:00,
2013-06-12 03:41:00,56.5,53.6,29.61,NNE,27,4.0,6.0,90,0.00,,,0.01,Wunderground v.1.15,2013-06-12 07:41:00,
2013-06-12 03:42:00,56.5,53.6,29.61,NNW,335,2.0,6.0,90,0.00,,,0.01,Wunderground v.1.15,2013-06-12 07:42:00,
2013-06-12 03:44:00,56.4,53.5,29.61,NW,320,14.0,14.0,90,0.00,,,0.01,Wunderground v.1.15,2013-06-12 07:44:00,
2013-06-12 03:45:00,56.4,53.5,29.61,NW,317,7.0,14.0,90,0.00,,,0.01,Wunderground v.1.15,2013-06-12 07:45:00,
2013-06-12 03:47:00,56.5,53.6,29.61,NNE,16,3.0,14.0,90,0.00,,,0.01,Wunderground v.1.15,2013-06-12 07:47:00,
2013-06-12 03:49:00,56.5,53.6,29.61,NNW,345,1.0,14.0,90,0.00,,,0.01,Wunderground v.1.15,2013-06-12 07:49:00,
2013-06-12 03:50:00,56.4,53.5,29.61,North,4,9.0,9.0,90,0.00,,,0.01,Wunderground v.1.15,2013-06-12 07:50:00,
2013-06-12 03:52:00,56.4,53.5,29.61,NNW,343,4.0,9.0,90,0.00,,,0.01,Wunderground v.1.15,2013-06-12 07:52:00,
2013-06-12 03:53:00,56.4,53.5,29.61,WNW,293,5.0,9.0,90,0.00,,,0.01,Wunderground v.1.15,2013-06-12 07:53:00,
2013-06-12 03:54:00,56.4,53.5,29.61,NNW,333,9.0,9.0,90,0.00,,,0.01,Wunderground v.1.15,2013-06-12 07:54:00,
2013-06-12 03:55:00,56.4,53.5,29.61,NW,316,5.0,9.0,90,0.00,,,0.01,Wunderground v.1.15,2013-06-12 07:55:00,
2013-06-12 03:57:00,56.4,53.5,29.61,ENE,75,11.0,12.0,90,0.00,,,0.01,Wunderground v.1.15,2013-06-12 07:57:00,
2013-06-12 03:58:00,56.4,53.5,29.61,NE,44,10.0,13.0,90,0.00,,,0.01,Wunderground v.1.15,2013-06-12 07:58:00,
2013-06-12 03:59:00,56.4,53.5,29.61,North,360,10.0,13.0,90,0.00,,,0.01,Wunderground v.1.15,2013-06-12 07:59:00,
2013-06-12 04:00:00,56.4,53.5,29.61,ENE,63,1.0,13.0,90,0.00,,,0.01,Wunderground v.1.15,2013-06-12 08:00:00,
2013-06-12 04:01:00,56.4,53.5,29.61,North,11,3.0,7.0,90,0.00,,,0.01,Wunderground v.1.15,2013-06-12 08:01:00,
2013-06-12 04:02:00,56.4,53.5,29.61,ENE,70,2.0,8.0,90,0.00,,,0.01,Wunderground v.1.15,2013-06-12 08:02:00,
2013-06-12 04:04:00,56.4,53.5,29.61,NNW,335,3.0,8.0,90,0.00,,,0.01,Wunderground v.1.15,2013-06-12 08:04:00,
2013-06-12 04:05:00,56.4,53.5,29.61,North,6,3.0,8.0,90,0.00,,,0.01,Wunderground v.1.15,2013-06-12 08:05:00,
2013-06-12 04:06:00,56.4,53.5,29.61,NNW,332,2.0,11.0,90,0.00,,,0.01,Wunderground v.1.15,2013-06-12 08:06:00,
2013-06-12 04:08:00,56.4,53.5,29.61,NE,41,2.0,11.0,90,0.00,,,0.01,Wunderground v.1.15,2013-06-12 08:08:00,
2013-06-12 04:09:00,56.4,53.5,29.61,NW,311,1.0,11.0,90,0.00,,,0.01,Wunderground v.1.15,2013-06-12 08:09:00,
2013-06-12 04:10:00,56.4,53.5,29.61,NW,319,0.0,11.0,90,0.00,,,0.01,Wunderground v.1.15,2013-06-12 08:10:00,
2013-06-12 04:12:00,56.3,53.4,29.61,NW,311,3.0,4.0,90,0.00,,,0.01,Wunderground v.1.15,2013-06-12 08:12:00,
2013-06-12 04:13:00,56.3,53.4,29.61,NNW,345,3.0,5.0,90,0.00,,,0.01,Wunderground v.1.15,2013-06-12 08:13:00,
2013-06-12 04:14:00,56.2,53.3,29.61,NNE,12,6.0,6.0,90,0.00,,,0.01,Wunderground v.1.15,2013-06-12 08:14:00,
2013-06-12 04:15:00,56.2,53.3,29.61,North,350,3.0,7.0,90,0.00,,,0.01,Wunderground v.1.15,2013-06-12 08:15:00,
2013-06-12 04:17:00,56.1,53.2,29.61,North,357,5.0,10.0,90,0.00,,,0.01,Wunderground v.1.15,2013-06-12 08:17:00,
2013-06-12 04:18:00,56.1,53.2,29.61,NE,42,3.0,10.0,90,0.00,,,0.01,Wunderground v.1.15,2013-06-12 08:18:00,
2013-06-12 04:19:00,56.1,53.2,29.61,NNW,332,4.0,10.0,90,0.00,,,0.01,Wunderground v.1.15,2013-06-12 08:19:00,
2013-06-12 04:21:00,56.1,53.2,29.62,ENE,58,3.0,8.0,90,0.00,,,0.01,Wunderground v.1.15,2013-06-12 08:21:00,
2013-06-12 04:22:00,56.2,53.3,29.62,NW,316,4.0,8.0,90,0.00,,,0.01,Wunderground v.1.15,2013-06-12 08:22:00,
2013-06-12 04:24:00,56.2,53.3,29.62,North,6,5.0,9.0,90,0.00,,,0.01,Wunderground v.1.15,2013-06-12 08:24:00,
2013-06-12 04:26:00,56.2,53.3,29.61,North,350,4.0,12.0,90,0.00,,,0.01,Wunderground v.1.15,2013-06-12 08:26:00,
2013-06-12 04:27:00,56.2,53.3,29.61,NNE,18,8.0,14.0,90,0.00,,,0.01,Wunderground v.1.15,2013-06-12 08:27:00,
2013-06-12 04:29:00,56.2,53.3,29.61,NW,309,9.0,14.0,90,0.00,,,0.01,Wunderground v.1.15,2013-06-12 08:29:00,
2013-06-12 04:30:00,56.3,53.4,29.62,NNW,343,5.0,14.0,90,0.00,,,0.01,Wunderground v.1.15,2013-06-12 08:30:00,
2013-06-12 04:31:00,56.3,53.4,29.62,NE,43,3.0,8.0,90,0.00,,,0.01,Wunderground v.1.15,2013-06-12 08:31:00,
2013-06-12 04:32:00,56.3,53.4,29.62,North,8,5.0,8.0,90,0.00,,,0.01,Wunderground v.1.15,2013-06-12 08:32:00,
2013-06-12 04:34:00,56.3,53.4,29.62,North,359,4.0,8.0,90,0.00,,,0.01,Wunderground v.1.15,2013-06-12 08:34:00,
2013-06-12 04:35:00,56.3,53.4,29.62,NE,47,3.0,8.0,90,0.00,,,0.01,Wunderground v.1.15,2013-06-12 08:35:00,
2013-06-12 04:37:00,56.2,53.3,29.62,NW,318,2.0,10.0,90,0.00,,,0.01,Wunderground v.1.15,2013-06-12 08:37:00,
2013-06-12 04:38:00,56.2,53.3,29.63,NNW,337,3.0,10.0,90,0.00,,,0.01,Wunderground v.1.15,2013-06-12 08:38:00,
2013-06-12 04:40:00,56.2,53.3,29.63,NW,323,4.0,10.0,90,0.00,,,0.01,Wunderground v.1.15,2013-06-12 08:40:00,
2013-06-12 04:42:00,56.1,53.2,29.63,North,359,4.0,7.0,90,0.00,,,0.01,Wunderground v.1.15,2013-06-12 08:42:00,
2013-06-12 04:43:00,56.0,53.1,29.63,North,10,4.0,7.0,90,0.00,,,0.01,Wunderground v.1.15,2013-06-12 08:43:00,
2013-06-12 04:45:00,56.0,53.1,29.63,NNW,340,3.0,7.0,90,0.00,,,0.01,Wunderground v.1.15,2013-06-12 08:45:00,
2013-06-12 04:47:00,55.9,53.0,29.63,North,3,5.0,7.0,90,0.00,,,0.01,Wunderground v.1.15,2013-06-12 08:47:00,
2013-06-12 04:48:00,55.9,53.0,29.63,North,354,3.0,7.0,90,0.00,,,0.01,Wunderground v.1.15,2013-06-12 08:48:00,
2013-06-12 04:50:00,55.9,53.0,29.63,NNW,333,2.0,9.0,90,0.00,,,0.01,Wunderground v.1.15,2013-06-12 08:50:00,
2013-06-12 04:51:00,55.8,52.9,29.63,NW,322,5.0,5.0,90,0.00,,,0.01,Wunderground v.1.15,2013-06-12 08:51:00,
2013-06-12 04:52:00,55.9,53.0,29.63,North,354,3.0,8.0,90,0.00,,,0.01,Wunderground v.1.15,2013-06-12 08:52:00,
2013-06-12 04:54:00,55.8,52.9,29.63,WNW,293,2.0,8.0,90,0.00,,,0.01,Wunderground v.1.15,2013-06-12 08:54:00,
2013-06-12 04:55:00,55.8,52.9,29.63,North,4,5.0,8.0,90,0.00,,,0.01,Wunderground v.1.15,2013-06-12 08:55:00,
2013-06-12 04:56:00,55.8,52.9,29.63,NNW,335,3.0,8.0,90,0.00,,,0.01,Wunderground v.1.15,2013-06-12 08:56:00,
2013-06-12 04:58:00,55.8,52.9,29.63,WNW,293,2.0,10.0,90,0.00,,,0.01,Wunderground v.1.15,2013-06-12 08:58:00,
2013-06-12 04:59:00,55.8,52.9,29.63,NW,307,4.0,10.0,90,0.00,,,0.01,Wunderground v.1.15,2013-06-12 08:59:00,
2013-06-12 05:00:00,55.8,52.9,29.64,NE,55,4.0,4.0,90,0.00,,,0.01,Wunderground v.1.15,2013-06-12 09:00:00,
2013-06-12 05:01:00,55.8,52.9,29.63,WNW,295,4.0,13.0,90,0.00,,,0.01,Wunderground v.1.15,2013-06-12 09:01:00,
2013-06-12 05:03:00,55.8,52.9,29.63,NNE,22,5.0,13.0,90,0.00,,,0.01,Wunderground v.1.15,2013-06-12 09:03:00,
2013-06-12 05:04:00,55.8,52.9,29.63,ENE,69,3.0,13.0,90,0.00,,,0.01,Wunderground v.1.15,2013-06-12 09:04:00,
2013-06-12 05:05:00,55.8,52.9,29.63,WNW,300,4.0,13.0,90,0.00,,,0.01,Wunderground v.1.15,2013-06-12 09:05:00,
2013-06-12 05:06:00,55.8,52.9,29.63,NNE,24,6.0,13.0,90,0.00,,,0.01,Wunderground v.1.15,2013-06-12 09:06:00,
2013-06-12 05:08:00,55.8,52.9,29.63,NNE,28,8.0,13.0,90,0.00,,,0.01,Wunderground v.1.15,2013-06-12 09:08:00,
2013-06-12 05:09:00,55.8,52.9,29.63,NNW,329,8.0,13.0,90,0.00,,,0.01,Wunderground v.1.15,2013-06-12 09:09:00,
2013-06-12 05:10:00,55.7,52.8,29.63,NNW,330,2.0,4.0,90,0.00,,,0.01,Wunderground v.1.15,2013-06-12 09:10:00,
2013-06-12 05:11:00,55.8,52.9,29.64,NNW,340,4.0,4.0,90,0.00,,,0.01,Wunderground v.1.15,2013-06-12 09:11:00,
2013-06-12 05:14:00,55.7,52.8,29.64,NNW,344,2.0,10.0,90,0.00,,,0.01,Wunderground v.1.15,2013-06-12 09:14:00,
2013-06-12 05:15:00,55.7,52.8,29.64,North,352,4.0,10.0,90,0.00,,,0.01,Wunderground v.1.15,2013-06-12 09:15:00,
2013-06-12 05:17:00,55.7,52.8,29.64,North,349,4.0,10.0,90,0.00,,,0.01,Wunderground v.1.15,2013-06-12 09:17:00,
2013-06-12 05:19:00,55.7,52.8,29.64,NNW,342,5.0,10.0,90,0.00,,,0.01,Wunderground v.1.15,2013-06-12 09:19:00,
2013-06-12 05:20:00,55.7,52.8,29.64,NNW,338,3.0,7.0,90,0.00,,,0.01,Wunderground v.1.15,2013-06-12 09:20:00,
2013-06-12 05:22:00,55.7,52.8,29.64,NNW,332,5.0,9.0,90,0.00,,,0.01,Wunderground v.1.15,2013-06-12 09:22:00,
2013-06-12 05:24:00,55.7,52.8,29.64,NNE,28,8.0,9.0,90,0.00,,,0.01,Wunderground v.1.15,2013-06-12 09:24:00,
2013-06-12 05:25:00,55.8,52.9,29.64,NNE,15,6.0,10.0,90,0.00,,,0.01,Wunderground v.1.15,2013-06-12 09:25:00,
2013-06-12 05:27:00,55.8,52.9,29.64,NNW,345,5.0,10.0,90,0.00,,,0.01,Wunderground v.1.15,2013-06-12 09:27:00,
2013-06-12 05:29:00,55.8,52.9,29.64,NE,39,1.0,10.0,90,0.00,,,0.01,Wunderground v.1.15,2013-06-12 09:29:00,
2013-06-12 05:30:00,55.8,52.9,29.64,NW,326,2.0,7.0,90,0.00,,,0.01,Wunderground v.1.15,2013-06-12 09:30:00,
2013-06-12 05:31:00,55.8,52.9,29.64,North,350,7.0,7.0,90,0.00,,,0.01,Wunderground v.1.15,2013-06-12 09:31:00,
2013-06-12 05:32:00,55.8,52.9,29.64,ENE,61,4.0,7.0,90,0.00,,,0.01,Wunderground v.1.15,2013-06-12 09:32:00,
2013-06-12 05:34:00,55.8,52.9,29.64,NNW,345,2.0,7.0,90,0.00,,,0.01,Wunderground v.1.15,2013-06-12 09:34:00,
2013-06-12 05:36:00,55.8,52.9,29.64,North,354,6.0,9.0,90,0.00,,,0.01,Wunderground v.1.15,2013-06-12 09:36:00,
2013-06-12 05:37:00,55.8,52.9,29.64,NNW,345,3.0,9.0,90,0.00,,,0.01,Wunderground v.1.15,2013-06-12 09:37:00,
2013-06-12 05:39:00,55.7,52.8,29.64,NNW,345,5.0,9.0,90,0.00,,,0.01,Wunderground v.1.15,2013-06-12 09:39:00,
2013-06-12 05:41:00,55.7,52.8,29.65,North,9,1.0,9.0,90,0.00,,,0.01,Wunderground v.1.15,2013-06-12 09:41:00,
2013-06-12 05:42:00,55.7,52.8,29.64,NNW,335,7.0,9.0,90,0.00,,,0.01,Wunderground v.1.15,2013-06-12 09:42:00,
2013-06-12 05:43:00,55.7,52.8,29.65,North,11,6.0,9.0,90,0.00,,,0.01,Wunderground v.1.15,2013-06-12 09:43:00,
2013-06-12 05:45:00,55.8,52.9,29.65,North,357,3.0,9.0,90,0.00,,,0.01,Wunderground v.1.15,2013-06-12 09:45:00,
2013-06-12 05:46:00,55.8,52.9,29.65,East,89,2.0,9.0,90,0.00,,,0.01,Wunderground v.1.15,2013-06-12 09:46:00,
2013-06-12 05:47:00,55.8,52.9,29.65,NNW,342,2.0,9.0,90,0.00,,,0.01,Wunderground v.1.15,2013-06-12 09:47:00,
2013-06-12 05:48:00,55.8,52.9,29.65,NE,34,2.0,9.0,90,0.00,,,0.01,Wunderground v.1.15,2013-06-12 09:48:00,
2013-06-12 05:50:00,55.8,52.9,29.65,NW,316,3.0,9.0,90,0.00,,,0.01,Wunderground v.1.15,2013-06-12 09:50:00,
2013-06-12 05:51:00,55.8,52.9,29.65,NNE,15,1.0,4.0,90,0.00,,,0.01,Wunderground v.1.15,2013-06-12 09:51:00,
2013-06-12 05:52:00,55.8,52.9,29.65,NNE,15,0.0,4.0,90,0.00,,,0.01,Wunderground v.1.15,2013-06-12 09:52:00,
2013-06-12 05:53:00,55.8,52.9,29.65,North,352,5.0,5.0,90,0.00,,,0.01,Wunderground v.1.15,2013-06-12 09:53:00,
2013-06-12 05:56:00,55.7,52.8,29.65,East,89,4.0,5.0,90,0.00,,,0.01,Wunderground v.1.15,2013-06-12 09:56:00,
2013-06-12 05:57:00,55.7,52.8,29.65,NNE,22,2.0,5.0,90,0.00,,,0.01,Wunderground v.1.15,2013-06-12 09:57:00,
2013-06-12 05:58:00,55.7,52.8,29.65,ENE,69,0.0,5.0,90,0.00,,,0.01,Wunderground v.1.15,2013-06-12 09:58:00,
2013-06-12 05:59:00,55.7,52.8,29.65,East,80,0.0,5.0,90,0.00,,,0.01,Wunderground v.1.15,2013-06-12 09:59:00,
2013-06-12 06:01:00,55.7,52.8,29.65,North,5,1.0,3.0,90,0.00,,,0.01,Wunderground v.1.15,2013-06-12 10:01:00,
2013-06-12 06:02:00,55.8,52.9,29.65,NNW,333,2.0,5.0,90,0.00,,,0.01,Wunderground v.1.15,2013-06-12 10:02:00,
2013-06-12 06:03:00,55.8,52.9,29.66,North,356,2.0,6.0,90,0.00,,,0.01,Wunderground v.1.15,2013-06-12 10:03:00,
2013-06-12 06:04:00,55.8,52.9,29.66,North,352,4.0,6.0,90,0.00,,,0.01,Wunderground v.1.15,2013-06-12 10:04:00,
2013-06-12 06:06:00,55.8,52.9,29.66,NW,304,2.0,7.0,90,0.00,,,0.01,Wunderground v.1.15,2013-06-12 10:06:00,
2013-06-12 06:07:00,55.8,52.9,29.66,NW,315,5.0,7.0,90,0.00,,,0.01,Wunderground v.1.15,2013-06-12 10:07:00,
2013-06-12 06:08:00,55.8,52.9,29.66,North,357,2.0,7.0,90,0.00,,,0.01,Wunderground v.1.15,2013-06-12 10:08:00,
2013-06-12 06:09:00,55.8,52.9,29.66,NNW,342,2.0,7.0,90,0.00,,,0.01,Wunderground v.1.15,2013-06-12 10:09:00,
2013-06-12 06:10:00,55.9,53.0,29.66,NE,51,3.0,7.0,90,0.00,,,0.01,Wunderground v.1.15,2013-06-12 10:10:00,
2013-06-12 06:11:00,55.9,53.0,29.66,NW,326,2.0,5.0,90,0.00,,,0.01,Wunderground v.1.15,2013-06-12 10:11:00,
2013-06-12 06:12:00,55.9,53.0,29.66,NE,43,4.0,7.0,90,0.00,,,0.01,Wunderground v.1.15,2013-06-12 10:12:00,
2013-06-12 06:13:00,55.9,53.0,29.66,NNE,27,6.0,7.0,90,0.00,,,0.01,Wunderground v.1.15,2013-06-12 10:13:00,
2013-06-12 06:14:00,55.9,53.0,29.66,NNW,337,2.0,7.0,90,0.00,,,0.01,Wunderground v.1.15,2013-06-12 10:14:00,
2013-06-12 06:15:00,55.9,53.0,29.66,NE,41,4.0,13.0,90,0.00,,,0.01,Wunderground v.1.15,2013-06-12 10:15:00,
2013-06-12 06:16:00,56.0,53.1,29.66,NNE,30,7.0,13.0,90,0.00,,,0.01,Wunderground v.1.15,2013-06-12 10:16:00,
2013-06-12 06:18:00,56.1,53.2,29.66,NNW,339,2.0,13.0,90,0.00,,,0.01,Wunderground v.1.15,2013-06-12 10:18:00,
2013-06-12 06:19:00,56.1,53.2,29.66,North,1,5.0,13.0,90,0.00,,,0.01,Wunderground v.1.15,2013-06-12 10:19:00,
2013-06-12 06:20:00,56.2,53.3,29.66,NE,37,2.0,5.0,90,0.00,,,0.01,Wunderground v.1.15,2013-06-12 10:20:00,
2013-06-12 06:22:00,56.2,53.3,29.66,North,360,8.0,8.0,90,0.00,,,0.01,Wunderground v.1.15,2013-06-12 10:22:00,
2013-06-12 06:23:00,56.3,53.4,29.66,ENE,75,2.0,8.0,90,0.00,,,0.01,Wunderground v.1.15,2013-06-12 10:23:00,
2013-06-12 06:24:00,56.4,53.5,29.66,NW,321,2.0,8.0,90,0.00,,,0.01,Wunderground v.1.15,2013-06-12 10:24:00,
2013-06-12 06:25:00,56.4,53.5,29.66,NNE,21,6.0,11.0,90,0.00,,,0.01,Wunderground v.1.15,2013-06-12 10:25:00,
2013-06-12 06:27:00,56.5,53.6,29.66,NNE,21,2.0,11.0,90,0.00,,,0.01,Wunderground v.1.15,2013-06-12 10:27:00,
2013-06-12 06:28:00,56.6,53.7,29.66,NNW,347,5.0,11.0,90,0.00,,,0.01,Wunderground v.1.15,2013-06-12 10:28:00,
2013-06-12 06:29:00,56.6,53.4,29.66,NW,319,2.0,11.0,89,0.00,,,0.01,Wunderground v.1.15,2013-06-12 10:29:00,
2013-06-12 06:30:00,56.6,53.4,29.66,North,360,2.0,4.0,89,0.00,,,0.01,Wunderground v.1.15,2013-06-12 10:30:00,
2013-06-12 06:32:00,56.7,53.5,29.66,NW,311,6.0,9.0,89,0.00,,,0.01,Wunderground v.1.15,2013-06-12 10:32:00,
2013-06-12 06:34:00,56.8,53.6,29.66,NNE,23,5.0,9.0,89,0.00,,,0.01,Wunderground v.1.15,2013-06-12 10:34:00,
2013-06-12 06:35:00,56.8,53.6,29.66,NNE,23,4.0,13.0,89,0.00,,,0.01,Wunderground v.1.15,2013-06-12 10:35:00,
2013-06-12 06:37:00,56.9,53.7,29.66,NNW,342,4.0,13.0,89,0.00,,,0.01,Wunderground v.1.15,2013-06-12 10:37:00,
2013-06-12 06:39:00,57.0,53.8,29.66,North,10,7.0,13.0,89,0.00,,,0.01,Wunderground v.1.15,2013-06-12 10:39:00,
2013-06-12 06:40:00,57.0,53.8,29.67,North,1,2.0,5.0,89,0.00,,,0.01,Wunderground v.1.15,2013-06-12 10:40:00,
2013-06-12 06:42:00,57.1,53.9,29.66,North,349,2.0,6.0,89,0.00,,,0.01,Wunderground v.1.15,2013-06-12 10:42:00,
2013-06-12 06:44:00,57.2,54.0,29.67,ENE,62,1.0,12.0,89,0.00,,,0.01,Wunderground v.1.15,2013-06-12 10:44:00,
2013-06-12 06:46:00,57.3,54.1,29.66,NNE,31,5.0,12.0,89,0.00,,,0.01,Wunderground v.1.15,2013-06-12 10:46:00,
2013-06-12 06:48:00,57.5,54.3,29.66,North,3,4.0,12.0,89,0.00,,,0.01,Wunderground v.1.15,2013-06-12 10:48:00,
2013-06-12 06:49:00,57.6,54.1,29.66,NW,325,8.0,12.0,88,0.00,,,0.01,Wunderground v.1.15,2013-06-12 10:49:00,
2013-06-12 06:50:00,57.7,54.2,29.67,NW,316,8.0,12.0,88,0.00,,,0.01,Wunderground v.1.15,2013-06-12 10:50:00,
2013-06-12 06:51:00,57.7,54.2,29.66,NNW,330,3.0,11.0,88,0.00,,,0.01,Wunderground v.1.15,2013-06-12 10:51:00,
2013-06-12 06:53:00,57.9,54.4,29.67,NNW,335,9.0,13.0,88,0.00,,,0.01,Wunderground v.1.15,2013-06-12 10:53:00,
2013-06-12 06:54:00,58.0,54.5,29.67,North,352,3.0,13.0,88,0.00,,,0.01,Wunderground v.1.15,2013-06-12 10:54:00,
2013-06-12 06:55:00,58.0,54.5,29.67,ENE,71,3.0,13.0,88,0.00,,,0.01,Wunderground v.1.15,2013-06-12 10:55:00,
2013-06-12 06:56:00,58.1,54.6,29.67,NNW,333,5.0,13.0,88,0.00,,,0.01,Wunderground v.1.15,2013-06-12 10:56:00,
2013-06-12 06:58:00,58.2,54.7,29.66,North,359,7.0,13.0,88,0.00,,,0.01,Wunderground v.1.15,2013-06-12 10:58:00,
2013-06-12 06:59:00,58.3,54.8,29.67,NW,325,3.0,13.0,88,0.00,,,0.01,Wunderground v.1.15,2013-06-12 10:59:00,
2013-06-12 07:00:00,58.3,54.8,29.67,NNE,18,3.0,13.0,88,0.00,,,0.01,Wunderground v.1.15,2013-06-12 11:00:00,
2013-06-12 07:01:00,58.4,54.9,29.66,NNW,335,3.0,5.0,88,0.00,,,0.01,Wunderground v.1.15,2013-06-12 11:01:00,
2013-06-12 07:02:00,58.5,55.0,29.66,East,82,0.0,8.0,88,0.00,,,0.01,Wunderground v.1.15,2013-06-12 11:02:00,
2013-06-12 07:03:00,58.6,54.7,29.66,ENE,78,3.0,8.0,87,0.00,,,0.01,Wunderground v.1.15,2013-06-12 11:03:00,
2013-06-12 07:05:00,58.6,54.7,29.66,WNW,302,2.0,8.0,87,0.00,,,0.01,Wunderground v.1.15,2013-06-12 11:05:00,
2013-06-12 07:06:00,58.7,54.5,29.66,North,352,2.0,11.0,86,0.00,,,0.01,Wunderground v.1.15,2013-06-12 11:06:00,
2013-06-12 07:08:00,58.8,54.6,29.67,NNW,340,3.0,11.0,86,0.00,,,0.01,Wunderground v.1.15,2013-06-12 11:08:00,
2013-06-12 07:10:00,58.9,55.0,29.66,NNW,342,4.0,11.0,87,0.00,,,0.01,Wunderground v.1.15,2013-06-12 11:10:00,
2013-06-12 07:12:00,58.9,54.7,29.66,NNE,25,3.0,8.0,86,0.00,,,0.01,Wunderground v.1.15,2013-06-12 11:12:00,
2013-06-12 07:13:00,58.9,54.7,29.66,NNE,32,4.0,8.0,86,0.00,,,0.01,Wunderground v.1.15,2013-06-12 11:13:00,
2013-06-12 07:15:00,58.9,54.7,29.66,WNW,301,4.0,8.0,86,0.00,,,0.01,Wunderground v.1.15,2013-06-12 11:15:00,
2013-06-12 07:16:00,58.9,54.7,29.66,NNE,13,4.0,8.0,86,0.00,,,0.01,Wunderground v.1.15,2013-06-12 11:16:00,
2013-06-12 07:17:00,58.9,54.7,29.66,North,1,2.0,8.0,86,0.00,,,0.01,Wunderground v.1.15,2013-06-12 11:17:00,
2013-06-12 07:18:00,58.9,54.7,29.66,NE,43,1.0,8.0,86,0.00,,,0.01,Wunderground v.1.15,2013-06-12 11:18:00,
2013-06-12 07:20:00,58.9,54.7,29.66,NE,55,4.0,5.0,86,0.00,,,0.01,Wunderground v.1.15,2013-06-12 11:20:00,
2013-06-12 07:21:00,58.9,54.7,29.66,NE,45,5.0,10.0,86,0.00,,,0.01,Wunderground v.1.15,2013-06-12 11:21:00,
2013-06-12 07:22:00,59.0,54.8,29.66,NNW,343,3.0,10.0,86,0.00,,,0.01,Wunderground v.1.15,2013-06-12 11:22:00,
2013-06-12 07:23:00,59.0,54.8,29.66,NNE,16,2.0,10.0,86,0.00,,,0.01,Wunderground v.1.15,2013-06-12 11:23:00,
2013-06-12 07:25:00,59.1,54.9,29.66,NNE,20,2.0,10.0,86,0.00,,,0.01,Wunderground v.1.15,2013-06-12 11:25:00,
2013-06-12 07:26:00,59.1,54.9,29.66,South,191,2.0,10.0,86,0.00,,,0.01,Wunderground v.1.15,2013-06-12 11:26:00,
2013-06-12 07:27:00,59.1,54.9,29.66,NNE,18,3.0,10.0,86,0.00,,,0.01,Wunderground v.1.15,2013-06-12 11:27:00,
2013-06-12 07:28:00,59.1,54.9,29.66,North,355,2.0,10.0,86,0.00,,,0.01,Wunderground v.1.15,2013-06-12 11:28:00,
2013-06-12 07:30:00,59.2,55.0,29.66,NE,37,1.0,3.0,86,0.00,,,0.01,Wunderground v.1.15,2013-06-12 11:30:00,
2013-06-12 07:31:00,59.2,55.0,29.66,NE,34,8.0,8.0,86,0.00,,,0.01,Wunderground v.1.15,2013-06-12 11:31:00,
2013-06-12 07:33:00,59.3,54.8,29.66,North,360,4.0,10.0,85,0.00,,,0.01,Wunderground v.1.15,2013-06-12 11:33:00,
2013-06-12 07:34:00,59.3,54.8,29.66,NW,320,10.0,12.0,85,0.00,,,0.01,Wunderground v.1.15,2013-06-12 11:34:00,
2013-06-12 07:36:00,59.3,54.8,29.66,NW,322,6.0,12.0,85,0.00,,,0.01,Wunderground v.1.15,2013-06-12 11:36:00,
2013-06-12 07:39:00,59.4,54.6,29.66,NNW,343,1.0,12.0,84,0.00,,,0.01,Wunderground v.1.15,2013-06-12 11:39:00,
2013-06-12 07:41:00,59.5,55.0,29.66,NNE,14,7.0,7.0,85,0.00,,,0.01,Wunderground v.1.15,2013-06-12 11:41:00,
2013-06-12 07:44:00,59.6,54.8,29.66,NNW,345,3.0,11.0,84,0.00,,,0.01,Wunderground v.1.15,2013-06-12 11:44:00,
2013-06-12 07:46:00,59.7,55.2,29.66,NNW,340,3.0,11.0,85,0.00,,,0.01,Wunderground v.1.15,2013-06-12 11:46:00,
2013-06-12 07:47:00,59.7,55.2,29.66,North,354,3.0,11.0,85,0.00,,,0.01,Wunderground v.1.15,2013-06-12 11:47:00,
2013-06-12 07:49:00,59.9,55.4,29.66,NE,50,2.0,11.0,85,0.00,,,0.01,Wunderground v.1.15,2013-06-12 11:49:00,
2013-06-12 07:51:00,60.0,55.2,29.66,North,6,4.0,10.0,84,0.00,,,0.01,Wunderground v.1.15,2013-06-12 11:51:00,
2013-06-12 07:52:00,60.0,55.2,29.66,NE,36,5.0,10.0,84,0.00,,,0.01,Wunderground v.1.15,2013-06-12 11:52:00,
2013-06-12 07:54:00,60.1,55.2,29.66,ENE,78,4.0,10.0,84,0.00,,,0.01,Wunderground v.1.15,2013-06-12 11:54:00,
2013-06-12 07:55:00,60.1,55.2,29.66,NNW,332,4.0,10.0,84,0.00,,,0.01,Wunderground v.1.15,2013-06-12 11:55:00,
2013-06-12 07:57:00,60.3,55.1,29.66,NW,315,2.0,10.0,83,0.00,,,0.01,Wunderground v.1.15,2013-06-12 11:57:00,
2013-06-12 08:00:00,60.4,55.2,29.66,ENE,60,7.0,10.0,83,0.00,,,0.01,Wunderground v.1.15,2013-06-12 12:00:00,
2013-06-12 08:02:00,60.5,55.3,29.67,NNE,32,2.0,4.0,83,0.00,,,0.01,Wunderground v.1.15,2013-06-12 12:02:00,
2013-06-12 08:05:00,60.6,55.4,29.67,ENE,63,6.0,9.0,83,0.00,,,0.01,Wunderground v.1.15,2013-06-12 12:05:00,
2013-06-12 08:07:00,60.8,55.6,29.67,NE,55,2.0,9.0,83,0.00,,,0.01,Wunderground v.1.15,2013-06-12 12:07:00,
2013-06-12 08:08:00,60.8,55.6,29.67,NNE,24,7.0,9.0,83,0.00,,,0.01,Wunderground v.1.15,2013-06-12 12:08:00,
2013-06-12 08:10:00,60.9,55.7,29.67,NNW,346,3.0,9.0,83,0.00,,,0.01,Wunderground v.1.15,2013-06-12 12:10:00,
2013-06-12 08:11:00,61.0,55.8,29.67,West,280,0.0,3.0,83,0.00,,,0.01,Wunderground v.1.15,2013-06-12 12:11:00,
2013-06-12 08:12:00,61.1,55.9,29.66,NNW,345,1.0,6.0,83,0.00,,,0.01,Wunderground v.1.15,2013-06-12 12:12:00,
2013-06-12 08:13:00,61.1,55.9,29.67,NNW,328,3.0,7.0,83,0.00,,,0.01,Wunderground v.1.15,2013-06-12 12:13:00,
2013-06-12 08:15:00,61.0,55.1,29.67,East,79,3.0,16.0,81,0.00,,,0.01,Wunderground v.1.15,2013-06-12 12:15:00,
2013-06-12 08:16:00,61.0,55.1,29.67,North,359,5.0,16.0,81,0.00,,,0.01,Wunderground v.1.15,2013-06-12 12:16:00,
2013-06-12 08:18:00,60.9,55.0,29.67,East,82,2.0,16.0,81,0.00,,,0.01,Wunderground v.1.15,2013-06-12 12:18:00,
2013-06-12 08:20:00,61.0,55.1,29.67,ENE,77,3.0,5.0,81,0.00,,,0.01,Wunderground v.1.15,2013-06-12 12:20:00,
2013-06-12 08:21:00,61.0,55.1,29.67,NW,325,6.0,8.0,81,0.00,,,0.01,Wunderground v.1.15,2013-06-12 12:21:00,
2013-06-12 08:23:00,61.1,55.2,29.66,East,93,1.0,8.0,81,0.00,,,0.01,Wunderground v.1.15,2013-06-12 12:23:00,
2013-06-12 08:25:00,61.3,55.4,29.67,NE,40,1.0,8.0,81,0.00,,,0.01,Wunderground v.1.15,2013-06-12 12:25:00,
2013-06-12 08:26:00,61.3,55.4,29.67,North,11,4.0,8.0,81,0.00,,,0.01,Wunderground v.1.15,2013-06-12 12:26:00,
2013-06-12 08:28:00,61.4,55.2,29.67,NNW,343,2.0,12.0,80,0.00,,,0.01,Wunderground v.1.15,2013-06-12 12:28:00,
2013-06-12 08:30:00,61.5,55.6,29.67,North,4,6.0,12.0,81,0.00,,,0.01,Wunderground v.1.15,2013-06-12 12:30:00,
2013-06-12 08:31:00,61.5,55.6,29.67,NW,307,4.0,12.0,81,0.00,,,0.01,Wunderground v.1.15,2013-06-12 12:31:00,
2013-06-12 08:33:00,61.5,55.3,29.67,East,98,2.0,12.0,80,0.00,,,0.01,Wunderground v.1.15,2013-06-12 12:33:00,
2013-06-12 08:36:00,61.5,54.9,29.67,NNW,344,3.0,14.0,79,0.00,,,0.01,Wunderground v.1.15,2013-06-12 12:36:00,
2013-06-12 08:38:00,61.7,55.5,29.67,East,93,5.0,15.0,80,0.00,,,0.01,Wunderground v.1.15,2013-06-12 12:38:00,
2013-06-12 08:39:00,61.7,55.5,29.67,ESE,117,3.0,15.0,80,0.00,,,0.01,Wunderground v.1.15,2013-06-12 12:39:00,
2013-06-12 08:41:00,61.8,55.6,29.67,NNE,18,3.0,5.0,80,0.00,,,0.01,Wunderground v.1.15,2013-06-12 12:41:00,
2013-06-12 08:43:00,61.9,55.3,29.68,NW,311,7.0,11.0,79,0.00,,,0.01,Wunderground v.1.15,2013-06-12 12:43:00,
2013-06-12 08:44:00,61.9,55.3,29.67,NNE,15,2.0,12.0,79,0.00,,,0.01,Wunderground v.1.15,2013-06-12 12:44:00,
2013-06-12 08:46:00,61.9,55.3,29.67,WNW,297,4.0,19.0,79,0.00,,,0.01,Wunderground v.1.15,2013-06-12 12:46:00,
2013-06-12 08:47:00,61.9,55.3,29.67,NW,309,2.0,19.0,79,0.00,,,0.01,Wunderground v.1.15,2013-06-12 12:47:00,
2013-06-12 08:48:00,62.0,55.4,29.67,East,82,5.0,19.0,79,0.00,,,0.01,Wunderground v.1.15,2013-06-12 12:48:00,
2013-06-12 08:49:00,62.0,55.8,29.67,North,3,4.0,19.0,80,0.00,,,0.01,Wunderground v.1.15,2013-06-12 12:49:00,
2013-06-12 08:51:00,62.1,55.5,29.67,ENE,68,4.0,6.0,79,0.00,,,0.01,Wunderground v.1.15,2013-06-12 12:51:00,
2013-06-12 08:52:00,62.1,55.5,29.67,East,84,3.0,6.0,79,0.00,,,0.01,Wunderground v.1.15,2013-06-12 12:52:00,
2013-06-12 08:53:00,62.2,55.3,29.67,NNW,338,7.0,13.0,78,0.00,,,0.01,Wunderground v.1.15,2013-06-12 12:53:00,
2013-06-12 08:54:00,62.2,55.3,29.67,NNE,27,11.0,13.0,78,0.00,,,0.01,Wunderground v.1.15,2013-06-12 12:54:00,
2013-06-12 08:56:00,62.4,55.8,29.67,NE,46,2.0,13.0,79,0.00,,,0.01,Wunderground v.1.15,2013-06-12 12:56:00,
2013-06-12 08:57:00,62.4,55.8,29.67,NNW,333,6.0,13.0,79,0.00,,,0.01,Wunderground v.1.15,2013-06-12 12:57:00,
2013-06-12 08:58:00,62.5,55.5,29.67,NW,325,2.0,13.0,78,0.00,,,0.01,Wunderground v.1.15,2013-06-12 12:58:00,
2013-06-12 09:00:00,62.6,55.6,29.67,NE,53,5.0,6.0,78,0.00,,,0.01,Wunderground v.1.15,2013-06-12 13:00:00,
2013-06-12 09:02:00,62.6,55.6,29.67,NE,46,4.0,10.0,78,0.00,,,0.01,Wunderground v.1.15,2013-06-12 13:02:00,
2013-06-12 09:04:00,62.6,55.3,29.67,NNW,337,4.0,10.0,77,0.00,,,0.01,Wunderground v.1.15,2013-06-12 13:04:00,
2013-06-12 09:05:00,62.6,55.3,29.68,NNW,339,5.0,11.0,77,0.00,,,0.01,Wunderground v.1.15,2013-06-12 13:05:00,
2013-06-12 09:07:00,62.5,55.2,29.68,NW,315,9.0,11.0,77,0.00,,,0.01,Wunderground v.1.15,2013-06-12 13:07:00,
2013-06-12 09:08:00,62.4,54.7,29.67,NW,325,2.0,15.0,76,0.00,,,0.01,Wunderground v.1.15,2013-06-12 13:08:00,
2013-06-12 09:09:00,62.4,55.4,29.67,NNW,327,5.0,15.0,78,0.00,,,0.01,Wunderground v.1.15,2013-06-12 13:09:00,
2013-06-12 09:10:00,62.2,54.9,29.67,North,6,9.0,13.0,77,0.00,,,0.01,Wunderground v.1.15,2013-06-12 13:10:00,
2013-06-12 09:12:00,62.2,55.3,29.68,NNE,15,2.0,13.0,78,0.00,,,0.01,Wunderground v.1.15,2013-06-12 13:12:00,
2013-06-12 09:13:00,62.3,55.7,29.68,ENE,71,3.0,13.0,79,0.00,,,0.01,Wunderground v.1.15,2013-06-12 13:13:00,
2013-06-12 09:14:00,62.3,55.7,29.67,NNW,343,4.0,13.0,79,0.00,,,0.01,Wunderground v.1.15,2013-06-12 13:14:00,
2013-06-12 09:16:00,62.4,55.4,29.68,WNW,298,4.0,13.0,78,0.00,,,0.01,Wunderground v.1.15,2013-06-12 13:16:00,
2013-06-12 09:17:00,62.6,56.0,29.68,ESE,111,2.0,13.0,79,0.00,,,0.01,Wunderground v.1.15,2013-06-12 13:17:00,
2013-06-12 09:19:00,62.8,56.2,29.68,NE,36,6.0,13.0,79,0.00,,,0.01,Wunderground v.1.15,2013-06-12 13:19:00,
2013-06-12 09:22:00,63.1,55.4,29.67,NW,326,6.0,12.0,76,0.00,,,0.01,Wunderground v.1.15,2013-06-12 13:22:00,
2013-06-12 09:24:00,63.1,56.5,29.67,NW,325,3.0,12.0,79,0.00,,,0.01,Wunderground v.1.15,2013-06-12 13:24:00,
2013-06-12 09:27:00,63.0,55.7,29.67,NNE,26,2.0,12.0,77,0.00,,,0.01,Wunderground v.1.15,2013-06-12 13:27:00,
2013-06-12 09:29:00,62.8,55.5,29.68,NNW,338,2.0,12.0,77,0.00,,,0.01,Wunderground v.1.15,2013-06-12 13:29:00,
2013-06-12 09:30:00,62.8,55.5,29.67,North,352,3.0,12.0,77,0.00,,,0.01,Wunderground v.1.15,2013-06-12 13:30:00,
2013-06-12 09:32:00,62.9,55.9,29.67,North,354,7.0,9.0,78,0.00,,,0.01,Wunderground v.1.15,2013-06-12 13:32:00,
2013-06-12 09:35:00,62.9,55.9,29.68,NE,49,1.0,11.0,78,0.00,,,0.01,Wunderground v.1.15,2013-06-12 13:35:00,
2013-06-12 09:37:00,63.1,56.1,29.68,NNE,23,2.0,11.0,78,0.00,,,0.01,Wunderground v.1.15,2013-06-12 13:37:00,
2013-06-12 09:38:00,63.2,56.6,29.67,NW,317,4.0,11.0,79,0.00,,,0.01,Wunderground v.1.15,2013-06-12 13:38:00,
2013-06-12 09:40:00,63.2,55.5,29.68,NNW,332,6.0,14.0,76,0.00,,,0.01,Wunderground v.1.15,2013-06-12 13:40:00,
2013-06-12 09:42:00,63.0,55.7,29.68,ENE,65,4.0,12.0,77,0.00,,,0.01,Wunderground v.1.15,2013-06-12 13:42:00,
2013-06-12 09:43:00,63.0,55.7,29.68,ENE,65,4.0,12.0,77,0.00,,,0.01,Wunderground v.1.15,2013-06-12 13:43:00,
2013-06-12 09:45:00,63.0,55.7,29.68,North,1,7.0,12.0,77,0.00,,,0.01,Wunderground v.1.15,2013-06-12 13:45:00,
2013-06-12 09:47:00,63.2,56.6,29.68,NE,54,2.0,12.0,79,0.00,,,0.01,Wunderground v.1.15,2013-06-12 13:47:00,
2013-06-12 09:48:00,63.2,56.2,29.68,NNW,336,2.0,12.0,78,0.00,,,0.01,Wunderground v.1.15,2013-06-12 13:48:00,
2013-06-12 09:50:00,63.4,56.1,29.68,NNW,347,8.0,8.0,77,0.00,,,0.01,Wunderground v.1.15,2013-06-12 13:50:00,
2013-06-12 09:51:00,63.5,56.2,29.68,NW,319,10.0,10.0,77,0.00,,,0.01,Wunderground v.1.15,2013-06-12 13:51:00,
2013-06-12 09:53:00,63.6,55.9,29.68,NNE,31,3.0,10.0,76,0.00,,,0.01,Wunderground v.1.15,2013-06-12 13:53:00,
2013-06-12 09:54:00,63.7,56.4,29.68,NW,323,2.0,10.0,77,0.00,,,0.01,Wunderground v.1.15,2013-06-12 13:54:00,
2013-06-12 09:56:00,63.7,56.4,29.68,North,6,4.0,10.0,77,0.00,,,0.01,Wunderground v.1.15,2013-06-12 13:56:00,
2013-06-12 09:58:00,63.8,56.4,29.68,NW,316,2.0,10.0,77,0.00,,,0.01,Wunderground v.1.15,2013-06-12 13:58:00,
2013-06-12 09:59:00,64.0,57.4,29.68,ENE,65,8.0,13.0,79,0.00,,,0.01,Wunderground v.1.15,2013-06-12 13:59:00,
2013-06-12 10:01:00,64.1,56.4,29.68,NNW,345,3.0,11.0,76,0.00,,,0.01,Wunderground v.1.15,2013-06-12 14:01:00,
2013-06-12 10:03:00,64.4,57.0,29.68,NE,44,6.0,11.0,77,0.00,,,0.01,Wunderground v.1.15,2013-06-12 14:03:00,
2013-06-12 10:04:00,64.5,56.8,29.68,NNW,345,8.0,11.0,76,0.00,,,0.01,Wunderground v.1.15,2013-06-12 14:04:00,
2013-06-12 10:06:00,64.7,56.2,29.68,North,350,12.0,12.0,74,0.00,,,0.01,Wunderground v.1.15,2013-06-12 14:06:00,
2013-06-12 10:08:00,64.7,56.2,29.68,NNW,343,4.0,12.0,74,0.00,,,0.01,Wunderground v.1.15,2013-06-12 14:08:00,
2013-06-12 10:09:00,64.8,56.7,29.68,East,91,7.0,12.0,75,0.00,,,0.01,Wunderground v.1.15,2013-06-12 14:09:00,
2013-06-12 10:11:00,64.9,56.8,29.68,ENE,64,7.0,7.0,75,0.00,,,0.01,Wunderground v.1.15,2013-06-12 14:11:00,
2013-06-12 10:13:00,65.2,56.7,29.68,WNW,292,2.0,7.0,74,0.00,,,0.01,Wunderground v.1.15,2013-06-12 14:13:00,
2013-06-12 10:14:00,65.2,56.3,29.68,East,86,7.0,14.0,73,0.00,,,0.01,Wunderground v.1.15,2013-06-12 14:14:00,
2013-06-12 10:15:00,65.2,55.9,29.68,NE,36,5.0,14.0,72,0.00,,,0.01,Wunderground v.1.15,2013-06-12 14:15:00,
2013-06-12 10:16:00,65.1,55.8,29.68,North,355,8.0,14.0,72,0.00,,,0.01,Wunderground v.1.15,2013-06-12 14:16:00,
2013-06-12 10:18:00,65.1,55.8,29.68,NE,56,3.0,14.0,72,0.00,,,0.01,Wunderground v.1.15,2013-06-12 14:18:00,
2013-06-12 10:19:00,65.0,55.8,29.68,ENE,75,5.0,14.0,72,0.00,,,0.01,Wunderground v.1.15,2013-06-12 14:19:00,
2013-06-12 10:20:00,65.0,55.4,29.68,NE,49,4.0,6.0,71,0.00,,,0.01,Wunderground v.1.15,2013-06-12 14:20:00,
2013-06-12 10:22:00,65.0,55.8,29.68,WNW,288,4.0,10.0,72,0.00,,,0.01,Wunderground v.1.15,2013-06-12 14:22:00,
2013-06-12 10:23:00,64.9,55.3,29.68,NE,36,6.0,11.0,71,0.00,,,0.01,Wunderground v.1.15,2013-06-12 14:23:00,
2013-06-12 10:24:00,64.9,55.7,29.68,North,11,2.0,11.0,72,0.00,,,0.01,Wunderground v.1.15,2013-06-12 14:24:00,
2013-06-12 10:26:00,64.7,55.1,29.68,NNW,345,1.0,13.0,71,0.00,,,0.01,Wunderground v.1.15,2013-06-12 14:26:00,
2013-06-12 10:27:00,64.7,55.5,29.68,NNW,335,10.0,13.0,72,0.00,,,0.01,Wunderground v.1.15,2013-06-12 14:27:00,
2013-06-12 10:29:00,64.8,55.6,29.68,ENE,60,4.0,13.0,72,0.00,,,0.01,Wunderground v.1.15,2013-06-12 14:29:00,
2013-06-12 10:31:00,65.1,56.6,29.68,ENE,65,4.0,6.0,74,0.00,,,0.01,Wunderground v.1.15,2013-06-12 14:31:00,
2013-06-12 10:32:00,65.1,56.6,29.68,NW,309,1.0,6.0,74,0.00,,,0.01,Wunderground v.1.15,2013-06-12 14:32:00,
2013-06-12 10:34:00,65.5,57.4,29.68,NNE,26,5.0,6.0,75,0.00,,,0.01,Wunderground v.1.15,2013-06-12 14:34:00,
2013-06-12 10:35:00,65.6,55.9,29.68,ENE,75,11.0,12.0,71,0.00,,,0.01,Wunderground v.1.15,2013-06-12 14:35:00,
2013-06-12 10:36:00,65.7,56.0,29.68,NNE,25,3.0,12.0,71,0.00,,,0.01,Wunderground v.1.15,2013-06-12 14:36:00,
2013-06-12 10:37:00,65.6,55.5,29.68,East,88,8.0,12.0,70,0.00,,,0.01,Wunderground v.1.15,2013-06-12 14:37:00,
2013-06-12 10:38:00,65.7,55.6,29.68,North,354,3.0,12.0,70,0.00,,,0.01,Wunderground v.1.15,2013-06-12 14:38:00,
2013-06-12 10:39:00,65.6,55.5,29.68,NNW,340,5.0,16.0,70,0.00,,,0.01,Wunderground v.1.15,2013-06-12 14:39:00,
2013-06-12 10:41:00,65.5,55.5,29.68,NNW,347,6.0,6.0,70,0.00,,,0.01,Wunderground v.1.15,2013-06-12 14:41:00,
2013-06-12 10:42:00,65.5,56.2,29.68,East,101,2.0,9.0,72,0.00,,,0.01,Wunderground v.1.15,2013-06-12 14:42:00,
2013-06-12 10:43:00,65.5,56.2,29.68,ENE,62,5.0,9.0,72,0.00,,,0.01,Wunderground v.1.15,2013-06-12 14:43:00,
2013-06-12 10:45:00,65.8,57.7,29.68,NW,323,7.0,9.0,75,0.00,,,0.01,Wunderground v.1.15,2013-06-12 14:45:00,
2013-06-12 10:46:00,66.0,57.1,29.68,NE,55,5.0,9.0,73,0.00,,,0.01,Wunderground v.1.15,2013-06-12 14:46:00,
2013-06-12 10:47:00,66.1,57.6,29.68,NE,49,3.0,9.0,74,0.00,,,0.01,Wunderground v.1.15,2013-06-12 14:47:00,
2013-06-12 10:48:00,66.3,56.6,29.68,East,89,1.0,9.0,71,0.00,,,0.01,Wunderground v.1.15,2013-06-12 14:48:00,
2013-06-12 10:50:00,66.5,56.8,29.68,NNW,343,4.0,6.0,71,0.00,,,0.01,Wunderground v.1.15,2013-06-12 14:50:00,
2013-06-12 10:51:00,66.6,56.9,29.68,NE,46,4.0,6.0,71,0.00,,,0.01,Wunderground v.1.15,2013-06-12 14:51:00,
2013-06-12 10:52:00,66.7,57.4,29.68,NNE,15,1.0,6.0,72,0.00,,,0.01,Wunderground v.1.15,2013-06-12 14:52:00,
2013-06-12 10:53:00,66.7,57.0,29.68,NE,51,3.0,6.0,71,0.00,,,0.01,Wunderground v.1.15,2013-06-12 14:53:00,
2013-06-12 10:56:00,66.6,55.7,29.69,NE,46,3.0,11.0,68,0.00,,,0.01,Wunderground v.1.15,2013-06-12 14:56:00,
2013-06-12 10:57:00,66.4,55.5,29.69,WNW,297,12.0,12.0,68,0.00,,,0.01,Wunderground v.1.15,2013-06-12 14:57:00,
2013-06-12 10:58:00,66.4,55.5,29.69,North,356,4.0,12.0,68,0.00,,,0.01,Wunderground v.1.15,2013-06-12 14:58:00,
2013-06-12 11:01:00,66.1,55.6,29.69,ESE,117,8.0,8.0,69,0.00,,,0.01,Wunderground v.1.15,2013-06-12 15:01:00,
2013-06-12 11:02:00,65.9,55.4,29.69,NNW,329,2.0,8.0,69,0.00,,,0.01,Wunderground v.1.15,2013-06-12 15:02:00,
2013-06-12 11:03:00,65.9,55.8,29.69,NE,54,4.0,8.0,70,0.00,,,0.01,Wunderground v.1.15,2013-06-12 15:03:00,
2013-06-12 11:06:00,65.4,55.0,29.69,NNW,340,7.0,11.0,69,0.00,,,0.01,Wunderground v.1.15,2013-06-12 15:06:00,
2013-06-12 11:07:00,65.2,54.4,29.69,NW,311,9.0,11.0,68,0.00,,,0.01,Wunderground v.1.15,2013-06-12 15:07:00,
2013-06-12 11:08:00,65.2,54.4,29.69,NW,320,5.0,11.0,68,0.00,,,0.01,Wunderground v.1.15,2013-06-12 15:08:00,
2013-06-12 11:09:00,65.2,54.8,29.69,NE,53,2.0,11.0,69,0.00,,,0.01,Wunderground v.1.15,2013-06-12 15:09:00,
2013-06-12 11:11:00,65.3,55.3,29.69,ENE,63,11.0,11.0,70,0.00,,,0.01,Wunderground v.1.15,2013-06-12 15:11:00,
2013-06-12 11:12:00,65.3,54.9,29.69,East,86,2.0,11.0,69,0.00,,,0.01,Wunderground v.1.15,2013-06-12 15:12:00,
2013-06-12 11:13:00,65.3,55.3,29.69,NNW,330,6.0,11.0,70,0.00,,,0.01,Wunderground v.1.15,2013-06-12 15:13:00,
2013-06-12 11:14:00,65.4,55.7,29.69,East,86,6.0,11.0,71,0.00,,,0.01,Wunderground v.1.15,2013-06-12 15:14:00,
2013-06-12 11:16:00,65.4,56.1,29.69,NNE,16,5.0,11.0,72,0.00,,,0.01,Wunderground v.1.15,2013-06-12 15:16:00,
2013-06-12 11:17:00,65.4,55.4,29.69,ESE,122,7.0,14.0,70,0.00,,,0.01,Wunderground v.1.15,2013-06-12 15:17:00,
2013-06-12 11:18:00,65.2,54.8,29.69,NW,316,5.0,14.0,69,0.00,,,0.01,Wunderground v.1.15,2013-06-12 15:18:00,
2013-06-12 11:19:00,65.2,54.8,29.69,ENE,72,3.0,14.0,69,0.00,,,0.01,Wunderground v.1.15,2013-06-12 15:19:00,
2013-06-12 11:22:00,65.2,55.2,29.69,NNE,19,5.0,11.0,70,0.00,,,0.01,Wunderground v.1.15,2013-06-12 15:22:00,
2013-06-12 11:23:00,65.5,57.0,29.69,NE,39,5.0,11.0,74,0.00,,,0.01,Wunderground v.1.15,2013-06-12 15:23:00,
2013-06-12 11:24:00,65.7,56.4,29.68,NNE,30,5.0,11.0,72,0.00,,,0.01,Wunderground v.1.15,2013-06-12 15:24:00,
2013-06-12 11:27:00,66.1,56.0,29.69,East,96,11.0,16.0,70,0.00,,,0.01,Wunderground v.1.15,2013-06-12 15:27:00,
2013-06-12 11:28:00,66.2,56.1,29.69,NNW,342,7.0,16.0,70,0.00,,,0.01,Wunderground v.1.15,2013-06-12 15:28:00,
2013-06-12 11:29:00,66.5,56.8,29.69,NNW,335,5.0,16.0,71,0.00,,,0.01,Wunderground v.1.15,2013-06-12 15:29:00,
2013-06-12 11:32:00,67.1,57.8,29.69,NW,309,3.0,8.0,72,0.00,,,0.01,Wunderground v.1.15,2013-06-12 15:32:00,
2013-06-12 11:33:00,67.2,57.1,29.69,North,6,4.0,14.0,70,0.00,,,0.01,Wunderground v.1.15,2013-06-12 15:33:00,
2013-06-12 11:34:00,67.3,56.0,29.69,NE,44,5.0,16.0,67,0.00,,,0.01,Wunderground v.1.15,2013-06-12 15:34:00,
2013-06-12 11:37:00,67.1,55.4,29.69,NW,309,4.0,16.0,66,0.00,,,0.01,Wunderground v.1.15,2013-06-12 15:37:00,
2013-06-12 11:38:00,67.0,55.3,29.70,ESE,110,3.0,16.0,66,0.00,,,0.01,Wunderground v.1.15,2013-06-12 15:38:00,
2013-06-12 11:40:00,66.7,55.0,29.69,NNE,15,8.0,16.0,66,0.00,,,0.01,Wunderground v.1.15,2013-06-12 15:40:00,
2013-06-12 11:43:00,66.1,55.2,29.70,NE,46,6.0,12.0,68,0.00,,,0.01,Wunderground v.1.15,2013-06-12 15:43:00,
2013-06-12 11:45:00,65.7,54.4,29.70,NE,47,3.0,16.0,67,0.00,,,0.01,Wunderground v.1.15,2013-06-12 15:45:00,
2013-06-12 11:48:00,65.2,54.8,29.70,NNE,30,2.0,16.0,69,0.00,,,0.01,Wunderground v.1.15,2013-06-12 15:48:00,
2013-06-12 11:49:00,65.0,55.0,29.70,WSW,240,2.0,16.0,70,0.00,,,0.01,Wunderground v.1.15,2013-06-12 15:49:00,
2013-06-12 11:50:00,65.0,54.6,29.70,North,10,3.0,16.0,69,0.00,,,0.01,Wunderground v.1.15,2013-06-12 15:50:00,
2013-06-12 11:53:00,64.7,54.3,29.70,NNE,26,3.0,11.0,69,0.00,,,0.01,Wunderground v.1.15,2013-06-12 15:53:00,
2013-06-12 11:55:00,64.6,55.0,29.70,WNW,302,6.0,11.0,71,0.00,,,0.01,Wunderground v.1.15,2013-06-12 15:55:00,
2013-06-12 11:58:00,64.7,55.5,29.70,NNE,18,1.0,11.0,72,0.00,,,0.01,Wunderground v.1.15,2013-06-12 15:58:00,
2013-06-12 12:00:00,64.8,54.8,29.70,NE,34,3.0,11.0,70,0.00,,,0.01,Wunderground v.1.15,2013-06-12 16:00:00,
2013-06-12 12:01:00,64.8,55.2,29.70,NNW,330,3.0,6.0,71,0.00,,,0.01,Wunderground v.1.15,2013-06-12 16:01:00,
2013-06-12 12:03:00,65.0,55.4,29.70,ENE,68,5.0,11.0,71,0.00,,,0.01,Wunderground v.1.15,2013-06-12 16:03:00,
2013-06-12 12:04:00,65.1,55.5,29.70,ESE,118,4.0,11.0,71,0.00,,,0.01,Wunderground v.1.15,2013-06-12 16:04:00,
2013-06-12 12:05:00,65.3,55.7,29.70,WNW,300,8.0,12.0,71,0.00,,,0.01,Wunderground v.1.15,2013-06-12 16:05:00,
2013-06-12 12:06:00,65.4,55.4,29.70,ENE,64,3.0,12.0,70,0.00,,,0.01,Wunderground v.1.15,2013-06-12 16:06:00,
2013-06-12 12:08:00,65.5,55.1,29.70,NNW,329,3.0,14.0,69,0.00,,,0.01,Wunderground v.1.15,2013-06-12 16:08:00,
2013-06-12 12:09:00,65.5,55.1,29.70,NW,323,5.0,14.0,69,0.00,,,0.01,Wunderground v.1.15,2013-06-12 16:09:00,
2013-06-12 12:10:00,65.5,55.1,29.70,WNW,293,6.0,6.0,69,0.00,,,0.01,Wunderground v.1.15,2013-06-12 16:10:00,
2013-06-12 12:11:00,65.4,55.4,29.70,NW,311,7.0,7.0,70,0.00,,,0.01,Wunderground v.1.15,2013-06-12 16:11:00,
2013-06-12 12:12:00,65.4,55.0,29.70,NNE,32,5.0,8.0,69,0.00,,,0.01,Wunderground v.1.15,2013-06-12 16:12:00,
2013-06-12 12:13:00,65.4,55.4,29.70,NNW,348,5.0,8.0,70,0.00,,,0.01,Wunderground v.1.15,2013-06-12 16:13:00,
2013-06-12 12:14:00,65.3,55.3,29.70,NE,53,3.0,8.0,70,0.00,,,0.01,Wunderground v.1.15,2013-06-12 16:14:00,
2013-06-12 12:15:00,65.2,55.6,29.70,NNW,335,4.0,8.0,71,0.00,,,0.01,Wunderground v.1.15,2013-06-12 16:15:00,
2013-06-12 12:16:00,65.2,55.2,29.70,ENE,78,4.0,8.0,70,0.00,,,0.01,Wunderground v.1.15,2013-06-12 16:16:00,
2013-06-12 12:17:00,65.2,55.2,29.70,NE,46,2.0,8.0,70,0.00,,,0.01,Wunderground v.1.15,2013-06-12 16:17:00,
2013-06-12 12:18:00,65.0,55.0,29.70,NNW,345,2.0,8.0,70,0.00,,,0.01,Wunderground v.1.15,2013-06-12 16:18:00,
2013-06-12 12:19:00,64.9,54.9,29.70,ENE,70,2.0,8.0,70,0.00,,,0.01,Wunderground v.1.15,2013-06-12 16:19:00,
2013-06-12 12:20:00,64.8,55.2,29.70,NNW,328,4.0,7.0,71,0.00,,,0.01,Wunderground v.1.15,2013-06-12 16:20:00,
2013-06-12 12:22:00,64.7,54.7,29.70,NNE,16,1.0,7.0,70,0.00,,,0.01,Wunderground v.1.15,2013-06-12 16:22:00,
2013-06-12 12:23:00,64.6,55.0,29.71,North,4,1.0,7.0,71,0.00,,,0.01,Wunderground v.1.15,2013-06-12 16:23:00,
2013-06-12 12:24:00,64.5,55.7,29.71,NNW,340,3.0,7.0,73,0.00,,,0.01,Wunderground v.1.15,2013-06-12 16:24:00,
2013-06-12 12:25:00,64.5,54.9,29.71,NNW,333,6.0,12.0,71,0.00,,,0.01,Wunderground v.1.15,2013-06-12 16:25:00,
2013-06-12 12:27:00,64.4,54.8,29.71,NE,39,3.0,12.0,71,0.00,,,0.01,Wunderground v.1.15,2013-06-12 16:27:00,
2013-06-12 12:28:00,64.3,55.1,29.71,North,359,3.0,12.0,72,0.00,,,0.01,Wunderground v.1.15,2013-06-12 16:28:00,
2013-06-12 12:29:00,64.3,55.5,29.71,ENE,66,5.0,12.0,73,0.00,,,0.01,Wunderground v.1.15,2013-06-12 16:29:00,
2013-06-12 12:30:00,64.3,54.7,29.71,NNW,330,1.0,3.0,71,0.00,,,0.01,Wunderground v.1.15,2013-06-12 16:30:00,
2013-06-12 12:32:00,64.3,55.5,29.71,NW,310,2.0,6.0,73,0.00,,,0.01,Wunderground v.1.15,2013-06-12 16:32:00,
2013-06-12 12:33:00,64.3,55.5,29.71,North,3,1.0,6.0,73,0.00,,,0.01,Wunderground v.1.15,2013-06-12 16:33:00,
2013-06-12 12:34:00,64.3,55.5,29.71,North,11,3.0,6.0,73,0.00,,,0.01,Wunderground v.1.15,2013-06-12 16:34:00,
2013-06-12 12:35:00,64.3,54.7,29.71,NNW,333,0.0,7.0,71,0.00,,,0.01,Wunderground v.1.15,2013-06-12 16:35:00,
2013-06-12 12:37:00,64.2,55.0,29.71,North,10,2.0,7.0,72,0.00,,,0.01,Wunderground v.1.15,2013-06-12 16:37:00,
2013-06-12 12:38:00,64.2,55.0,29.71,WSW,242,3.0,7.0,72,0.00,,,0.01,Wunderground v.1.15,2013-06-12 16:38:00,
2013-06-12 12:39:00,64.1,54.9,29.71,NNE,12,1.0,7.0,72,0.00,,,0.01,Wunderground v.1.15,2013-06-12 16:39:00,
2013-06-12 12:41:00,64.0,55.2,29.71,North,1,3.0,3.0,73,0.00,,,0.01,Wunderground v.1.15,2013-06-12 16:41:00,
2013-06-12 12:43:00,63.9,54.3,29.71,NNE,28,5.0,5.0,71,0.00,,,0.01,Wunderground v.1.15,2013-06-12 16:43:00,
2013-06-12 12:44:00,63.8,55.0,29.71,ENE,72,4.0,7.0,73,0.00,,,0.01,Wunderground v.1.15,2013-06-12 16:44:00,
2013-06-12 12:46:00,63.7,54.5,29.71,WNW,284,2.0,7.0,72,0.00,,,0.01,Wunderground v.1.15,2013-06-12 16:46:00,
2013-06-12 12:48:00,63.7,54.9,29.71,NW,323,1.0,7.0,73,0.00,,,0.01,Wunderground v.1.15,2013-06-12 16:48:00,
2013-06-12 12:49:00,63.7,54.9,29.71,NNW,338,2.0,7.0,73,0.00,,,0.01,Wunderground v.1.15,2013-06-12 16:49:00,
2013-06-12 12:50:00,63.8,55.4,29.71,ESE,113,4.0,7.0,74,0.00,,,0.01,Wunderground v.1.15,2013-06-12 16:50:00,
2013-06-12 12:52:00,63.8,55.0,29.71,NE,46,1.0,9.0,73,0.00,,,0.01,Wunderground v.1.15,2013-06-12 16:52:00,
2013-06-12 12:53:00,63.9,55.1,29.71,NNW,332,2.0,9.0,73,0.00,,,0.01,Wunderground v.1.15,2013-06-12 16:53:00,
2013-06-12 12:54:00,64.0,55.5,29.71,North,4,3.0,9.0,74,0.00,,,0.01,Wunderground v.1.15,2013-06-12 16:54:00,
2013-06-12 12:55:00,64.1,54.9,29.71,NNW,342,3.0,9.0,72,0.00,,,0.01,Wunderground v.1.15,2013-06-12 16:55:00,
2013-06-12 12:58:00,64.5,55.3,29.71,NNW,344,3.0,9.0,72,0.00,,,0.01,Wunderground v.1.15,2013-06-12 16:58:00,
2013-06-12 12:59:00,64.6,54.6,29.71,NE,42,3.0,9.0,70,0.00,,,0.01,Wunderground v.1.15,2013-06-12 16:59:00,
2013-06-12 13:00:00,64.7,54.7,29.71,NW,304,1.0,3.0,70,0.00,,,0.01,Wunderground v.1.15,2013-06-12 17:00:00,
2013-06-12 13:03:00,64.9,56.0,29.71,NNW,331,4.0,11.0,73,0.00,,,0.01,Wunderground v.1.15,2013-06-12 17:03:00,
2013-06-12 13:04:00,64.8,55.2,29.71,NNE,12,4.0,11.0,71,0.00,,,0.01,Wunderground v.1.15,2013-06-12 17:04:00,
2013-06-12 13:05:00,64.8,55.6,29.71,NNE,23,1.0,11.0,72,0.00,,,0.01,Wunderground v.1.15,2013-06-12 17:05:00,
2013-06-12 13:06:00,64.7,55.8,29.72,ESE,117,4.0,11.0,73,0.00,,,0.01,Wunderground v.1.15,2013-06-12 17:06:00,
2013-06-12 13:08:00,64.5,54.5,29.72,North,352,6.0,13.0,70,0.00,,,0.01,Wunderground v.1.15,2013-06-12 17:08:00,
2013-06-12 13:09:00,64.4,54.4,29.72,ENE,66,4.0,13.0,70,0.00,,,0.01,Wunderground v.1.15,2013-06-12 17:09:00,
2013-06-12 13:10:00,64.3,53.9,29.71,NNE,12,6.0,17.0,69,0.00,,,0.01,Wunderground v.1.15,2013-06-12 17:10:00,
2013-06-12 13:11:00,64.2,54.2,29.72,NNE,31,7.0,10.0,70,0.00,,,0.01,Wunderground v.1.15,2013-06-12 17:11:00,
2013-06-12 13:13:00,64.0,54.0,29.72,ESE,106,6.0,10.0,70,0.00,,,0.01,Wunderground v.1.15,2013-06-12 17:13:00,
2013-06-12 13:14:00,64.0,54.0,29.71,ENE,61,7.0,10.0,70,0.00,,,0.01,Wunderground v.1.15,2013-06-12 17:14:00,
2013-06-12 13:15:00,64.0,54.0,29.72,SSW,207,1.0,10.0,70,0.00,,,0.01,Wunderground v.1.15,2013-06-12 17:15:00,
2013-06-12 13:16:00,64.0,54.0,29.71,East,91,3.0,10.0,70,0.00,,,0.01,Wunderground v.1.15,2013-06-12 17:16:00,
2013-06-12 13:18:00,64.1,55.3,29.71,NNE,15,2.0,10.0,73,0.00,,,0.01,Wunderground v.1.15,2013-06-12 17:18:00,
2013-06-12 13:19:00,64.1,55.3,29.71,West,269,2.0,10.0,73,0.00,,,0.01,Wunderground v.1.15,2013-06-12 17:19:00,
2013-06-12 13:20:00,64.2,54.2,29.71,NNW,332,2.0,4.0,70,0.00,,,0.01,Wunderground v.1.15,2013-06-12 17:20:00,
2013-06-12 13:21:00,64.3,55.1,29.71,NE,37,2.0,4.0,72,0.00,,,0.01,Wunderground v.1.15,2013-06-12 17:21:00,
2013-06-12 13:23:00,64.4,55.2,29.71,North,9,1.0,7.0,72,0.00,,,0.01,Wunderground v.1.15,2013-06-12 17:23:00,
2013-06-12 13:24:00,64.5,55.3,29.71,NNW,333,2.0,7.0,72,0.00,,,0.01,Wunderground v.1.15,2013-06-12 17:24:00,
2013-06-12 13:25:00,64.6,55.4,29.71,NNW,342,3.0,7.0,72,0.00,,,0.01,Wunderground v.1.15,2013-06-12 17:25:00,
2013-06-12 13:27:00,64.7,55.5,29.71,North,11,6.0,7.0,72,0.00,,,0.01,Wunderground v.1.15,2013-06-12 17:27:00,
2013-06-12 13:28:00,64.9,55.3,29.71,West,281,5.0,7.0,71,0.00,,,0.01,Wunderground v.1.15,2013-06-12 17:28:00,
2013-06-12 13:29:00,65.0,55.4,29.71,ENE,73,6.0,7.0,71,0.00,,,0.01,Wunderground v.1.15,2013-06-12 17:29:00,
2013-06-12 13:31:00,65.2,55.6,29.72,NNW,335,4.0,5.0,71,0.00,,,0.01,Wunderground v.1.15,2013-06-12 17:31:00,
2013-06-12 13:32:00,65.4,55.4,29.72,ENE,71,2.0,6.0,70,0.00,,,0.01,Wunderground v.1.15,2013-06-12 17:32:00,
2013-06-12 13:33:00,65.5,55.5,29.72,NW,312,5.0,7.0,70,0.00,,,0.01,Wunderground v.1.15,2013-06-12 17:33:00,
2013-06-12 13:34:00,65.5,55.8,29.72,North,359,11.0,11.0,71,0.00,,,0.01,Wunderground v.1.15,2013-06-12 17:34:00,
2013-06-12 13:36:00,65.6,55.5,29.72,NNW,330,3.0,11.0,70,0.00,,,0.01,Wunderground v.1.15,2013-06-12 17:36:00,
2013-06-12 13:37:00,65.5,55.5,29.72,NNE,18,5.0,11.0,70,0.00,,,0.01,Wunderground v.1.15,2013-06-12 17:37:00,
2013-06-12 13:38:00,65.3,54.5,29.72,North,354,7.0,15.0,68,0.00,,,0.01,Wunderground v.1.15,2013-06-12 17:38:00,
2013-06-12 13:39:00,65.3,54.5,29.72,WNW,283,5.0,15.0,68,0.00,,,0.01,Wunderground v.1.15,2013-06-12 17:39:00,
2013-06-12 13:40:00,65.1,54.7,29.72,WNW,283,6.0,15.0,69,0.00,,,0.01,Wunderground v.1.15,2013-06-12 17:40:00,
2013-06-12 13:41:00,64.9,54.5,29.72,ENE,59,4.0,8.0,69,0.00,,,0.01,Wunderground v.1.15,2013-06-12 17:41:00,
2013-06-12 13:42:00,64.7,53.9,29.72,NE,55,8.0,14.0,68,0.00,,,0.01,Wunderground v.1.15,2013-06-12 17:42:00,
2013-06-12 13:43:00,64.6,53.8,29.72,NE,49,4.0,14.0,68,0.00,,,0.01,Wunderground v.1.15,2013-06-12 17:43:00,
2013-06-12 13:44:00,64.6,53.8,29.72,NNE,28,4.0,14.0,68,0.00,,,0.01,Wunderground v.1.15,2013-06-12 17:44:00,
2013-06-12 13:45:00,64.5,54.1,29.72,North,4,4.0,14.0,69,0.00,,,0.01,Wunderground v.1.15,2013-06-12 17:45:00,
2013-06-12 13:46:00,64.5,54.1,29.72,North,5,5.0,14.0,69,0.00,,,0.01,Wunderground v.1.15,2013-06-12 17:46:00,
2013-06-12 13:48:00,64.5,54.9,29.72,WNW,291,2.0,14.0,71,0.00,,,0.01,Wunderground v.1.15,2013-06-12 17:48:00,
2013-06-12 13:49:00,64.6,55.0,29.72,NE,44,5.0,14.0,71,0.00,,,0.01,Wunderground v.1.15,2013-06-12 17:49:00,
2013-06-12 13:50:00,64.9,54.1,29.72,NNW,344,2.0,7.0,68,0.00,,,0.01,Wunderground v.1.15,2013-06-12 17:50:00,
2013-06-12 13:51:00,65.0,54.6,29.72,NW,316,6.0,9.0,69,0.00,,,0.01,Wunderground v.1.15,2013-06-12 17:51:00,
2013-06-12 13:53:00,65.1,55.1,29.72,East,86,2.0,9.0,70,0.00,,,0.01,Wunderground v.1.15,2013-06-12 17:53:00,
2013-06-12 13:54:00,65.2,55.9,29.72,ENE,68,4.0,9.0,72,0.00,,,0.01,Wunderground v.1.15,2013-06-12 17:54:00,
2013-06-12 13:55:00,65.5,55.5,29.72,North,11,5.0,9.0,70,0.00,,,0.01,Wunderground v.1.15,2013-06-12 17:55:00,
2013-06-12 13:57:00,65.6,55.9,29.72,ENE,68,3.0,9.0,71,0.00,,,0.01,Wunderground v.1.15,2013-06-12 17:57:00,
2013-06-12 13:58:00,65.7,55.6,29.72,ESE,110,4.0,10.0,70,0.00,,,0.01,Wunderground v.1.15,2013-06-12 17:58:00,
2013-06-12 13:59:00,65.7,54.8,29.73,ENE,69,5.0,10.0,68,0.00,,,0.01,Wunderground v.1.15,2013-06-12 17:59:00,
2013-06-12 14:01:00,65.6,54.8,29.73,NNW,338,3.0,8.0,68,0.00,,,0.01,Wunderground v.1.15,2013-06-12 18:01:00,
2013-06-12 14:02:00,65.6,55.5,29.73,NE,40,3.0,8.0,70,0.00,,,0.01,Wunderground v.1.15,2013-06-12 18:02:00,
2013-06-12 14:04:00,65.5,54.7,29.73,NNW,343,4.0,8.0,68,0.00,,,0.01,Wunderground v.1.15,2013-06-12 18:04:00,
2013-06-12 14:06:00,65.3,54.5,29.73,North,9,4.0,9.0,68,0.00,,,0.01,Wunderground v.1.15,2013-06-12 18:06:00,
2013-06-12 14:07:00,65.2,55.2,29.73,NNW,333,2.0,9.0,70,0.00,,,0.01,Wunderground v.1.15,2013-06-12 18:07:00,
2013-06-12 14:09:00,65.1,55.5,29.73,NE,55,2.0,9.0,71,0.00,,,0.01,Wunderground v.1.15,2013-06-12 18:09:00,
2013-06-12 14:11:00,65.1,55.1,29.73,NNE,15,2.0,7.0,70,0.00,,,0.01,Wunderground v.1.15,2013-06-12 18:11:00,
2013-06-12 14:12:00,65.2,54.8,29.73,ESE,115,8.0,9.0,69,0.00,,,0.01,Wunderground v.1.15,2013-06-12 18:12:00,
2013-06-12 14:14:00,65.2,54.8,29.73,NE,43,3.0,9.0,69,0.00,,,0.01,Wunderground v.1.15,2013-06-12 18:14:00,
2013-06-12 14:16:00,65.4,55.7,29.73,NNE,21,3.0,13.0,71,0.00,,,0.01,Wunderground v.1.15,2013-06-12 18:16:00,
2013-06-12 14:18:00,65.4,54.6,29.73,NE,51,3.0,13.0,68,0.00,,,0.01,Wunderground v.1.15,2013-06-12 18:18:00,
2013-06-12 14:19:00,65.4,55.0,29.73,NNE,23,2.0,13.0,69,0.00,,,0.01,Wunderground v.1.15,2013-06-12 18:19:00,
2013-06-12 14:22:00,65.4,55.4,29.73,ENE,73,9.0,14.0,70,0.00,,,0.01,Wunderground v.1.15,2013-06-12 18:22:00,
2013-06-12 14:23:00,65.3,54.9,29.73,East,82,4.0,14.0,69,0.00,,,0.01,Wunderground v.1.15,2013-06-12 18:23:00,
2013-06-12 14:24:00,65.2,54.4,29.73,NE,41,6.0,14.0,68,0.00,,,0.01,Wunderground v.1.15,2013-06-12 18:24:00,
2013-06-12 14:25:00,65.2,54.4,29.73,East,100,10.0,14.0,68,0.00,,,0.01,Wunderground v.1.15,2013-06-12 18:25:00,
2013-06-12 14:27:00,65.0,54.6,29.73,East,98,4.0,14.0,69,0.00,,,0.01,Wunderground v.1.15,2013-06-12 18:27:00,
2013-06-12 14:28:00,65.0,54.2,29.73,NNW,327,3.0,14.0,68,0.00,,,0.01,Wunderground v.1.15,2013-06-12 18:28:00,
2013-06-12 14:30:00,65.0,54.6,29.73,NE,50,4.0,14.0,69,0.00,,,0.01,Wunderground v.1.15,2013-06-12 18:30:00,
2013-06-12 14:32:00,65.0,55.0,29.73,East,99,4.0,13.0,70,0.00,,,0.01,Wunderground v.1.15,2013-06-12 18:32:00,
2013-06-12 14:33:00,65.0,55.0,29.73,East,89,4.0,13.0,70,0.00,,,0.01,Wunderground v.1.15,2013-06-12 18:33:00,
2013-06-12 14:35:00,65.2,54.8,29.73,NNW,348,4.0,13.0,69,0.00,,,0.01,Wunderground v.1.15,2013-06-12 18:35:00,
2013-06-12 14:37:00,65.7,56.0,29.73,North,359,2.0,13.0,71,0.00,,,0.01,Wunderground v.1.15,2013-06-12 18:37:00,
2013-06-12 14:38:00,65.9,56.2,29.73,South,169,4.0,14.0,71,0.00,,,0.01,Wunderground v.1.15,2013-06-12 18:38:00,
2013-06-12 14:40:00,66.4,55.5,29.73,WNW,285,2.0,5.0,68,0.00,,,0.01,Wunderground v.1.15,2013-06-12 18:40:00,
2013-06-12 14:42:00,66.9,56.0,29.73,ENE,65,6.0,10.0,68,0.00,,,0.01,Wunderground v.1.15,2013-06-12 18:42:00,
2013-06-12 14:43:00,67.1,55.4,29.72,NE,41,5.0,10.0,66,0.00,,,0.01,Wunderground v.1.15,2013-06-12 18:43:00,
2013-06-12 14:45:00,67.3,55.5,29.72,ENE,71,5.0,16.0,66,0.00,,,0.01,Wunderground v.1.15,2013-06-12 18:45:00,
2013-06-12 14:46:00,67.4,56.5,29.72,NNW,330,5.0,16.0,68,0.00,,,0.01,Wunderground v.1.15,2013-06-12 18:46:00,
2013-06-12 14:47:00,67.6,55.4,29.72,WNW,302,4.0,16.0,65,0.00,,,0.01,Wunderground v.1.15,2013-06-12 18:47:00,
2013-06-12 14:49:00,67.7,55.9,29.72,NW,326,3.0,16.0,66,0.00,,,0.01,Wunderground v.1.15,2013-06-12 18:49:00,
2013-06-12 14:50:00,67.9,56.9,29.73,NNW,329,4.0,6.0,68,0.00,,,0.01,Wunderground v.1.15,2013-06-12 18:50:00,
2013-06-12 14:51:00,68.0,56.6,29.73,NE,55,4.0,6.0,67,0.00,,,0.01,Wunderground v.1.15,2013-06-12 18:51:00,
2013-06-12 14:52:00,68.1,57.5,29.72,ESE,113,4.0,11.0,69,0.00,,,0.01,Wunderground v.1.15,2013-06-12 18:52:00,
2013-06-12 14:54:00,68.1,56.7,29.73,ENE,60,8.0,11.0,67,0.00,,,0.01,Wunderground v.1.15,2013-06-12 18:54:00,
2013-06-12 14:55:00,68.2,56.4,29.73,NE,41,6.0,11.0,66,0.00,,,0.01,Wunderground v.1.15,2013-06-12 18:55:00,
2013-06-12 14:56:00,68.1,55.9,29.73,WNW,282,5.0,22.0,65,0.00,,,0.01,Wunderground v.1.15,2013-06-12 18:56:00,
2013-06-12 14:57:00,68.0,55.8,29.73,East,90,4.0,22.0,65,0.00,,,0.01,Wunderground v.1.15,2013-06-12 18:57:00,
2013-06-12 14:59:00,68.0,55.8,29.73,NW,319,2.0,22.0,65,0.00,,,0.01,Wunderground v.1.15,2013-06-12 18:59:00,
2013-06-12 15:00:00,68.1,55.9,29.73,ESE,103,6.0,6.0,65,0.00,,,0.01,Wunderground v.1.15,2013-06-12 19:00:00,
2013-06-12 15:01:00,68.2,56.8,29.73,SE,132,3.0,6.0,67,0.00,,,0.01,Wunderground v.1.15,2013-06-12 19:01:00,
2013-06-12 15:03:00,68.3,56.5,29.73,NNW,340,3.0,7.0,66,0.00,,,0.01,Wunderground v.1.15,2013-06-12 19:03:00,
2013-06-12 15:05:00,68.3,55.2,29.73,ENE,58,8.0,20.0,63,0.00,,,0.01,Wunderground v.1.15,2013-06-12 19:05:00,
2013-06-12 15:06:00,68.3,55.6,29.73,North,354,4.0,20.0,64,0.00,,,0.01,Wunderground v.1.15,2013-06-12 19:06:00,
2013-06-12 15:07:00,68.3,56.5,29.73,NNE,20,2.0,20.0,66,0.00,,,0.01,Wunderground v.1.15,2013-06-12 19:07:00,
2013-06-12 15:08:00,68.3,57.3,29.72,ENE,77,3.0,20.0,68,0.00,,,0.01,Wunderground v.1.15,2013-06-12 19:08:00,
2013-06-12 15:10:00,68.6,57.6,29.72,ENE,75,2.0,20.0,68,0.00,,,0.01,Wunderground v.1.15,2013-06-12 19:10:00,
2013-06-12 15:11:00,68.8,57.0,29.73,NNE,30,6.0,10.0,66,0.00,,,0.01,Wunderground v.1.15,2013-06-12 19:11:00,
2013-06-12 15:12:00,68.8,56.6,29.72,West,260,4.0,10.0,65,0.00,,,0.01,Wunderground v.1.15,2013-06-12 19:12:00,
2013-06-12 15:13:00,68.9,57.5,29.73,North,8,2.0,10.0,67,0.00,,,0.01,Wunderground v.1.15,2013-06-12 19:13:00,
2013-06-12 15:15:00,69.0,56.7,29.73,ENE,65,6.0,10.0,65,0.00,,,0.01,Wunderground v.1.15,2013-06-12 19:15:00,
2013-06-12 15:16:00,68.9,56.2,29.73,NNW,335,4.0,10.0,64,0.00,,,0.01,Wunderground v.1.15,2013-06-12 19:16:00,
2013-06-12 15:18:00,68.8,56.6,29.73,NNE,32,4.0,10.0,65,0.00,,,0.01,Wunderground v.1.15,2013-06-12 19:18:00,
2013-06-12 15:20:00,68.7,56.5,29.73,NNE,25,4.0,10.0,65,0.00,,,0.01,Wunderground v.1.15,2013-06-12 19:20:00,
2013-06-12 15:21:00,68.6,55.9,29.73,NNW,341,3.0,9.0,64,0.00,,,0.01,Wunderground v.1.15,2013-06-12 19:21:00,
2013-06-12 15:22:00,68.7,56.5,29.73,NNW,342,4.0,9.0,65,0.00,,,0.01,Wunderground v.1.15,2013-06-12 19:22:00,
2013-06-12 15:23:00,68.8,56.6,29.74,West,281,3.0,9.0,65,0.00,,,0.01,Wunderground v.1.15,2013-06-12 19:23:00,
2013-06-12 15:24:00,69.0,58.8,29.73,NNE,28,6.0,9.0,70,0.00,,,0.01,Wunderground v.1.15,2013-06-12 19:24:00,
2013-06-12 15:25:00,69.0,57.2,29.73,NE,46,6.0,9.0,66,0.00,,,0.01,Wunderground v.1.15,2013-06-12 19:25:00,
2013-06-12 15:26:00,69.1,57.3,29.73,East,84,5.0,9.0,66,0.00,,,0.01,Wunderground v.1.15,2013-06-12 19:26:00,
2013-06-12 15:27:00,69.1,57.3,29.73,WNW,288,1.0,9.0,66,0.00,,,0.01,Wunderground v.1.15,2013-06-12 19:27:00,
2013-06-12 15:28:00,69.2,57.8,29.73,NE,37,3.0,14.0,67,0.00,,,0.01,Wunderground v.1.15,2013-06-12 19:28:00,
2013-06-12 15:29:00,69.2,56.9,29.73,NW,316,3.0,14.0,65,0.00,,,0.01,Wunderground v.1.15,2013-06-12 19:29:00,
2013-06-12 15:30:00,69.1,56.0,29.74,SE,141,4.0,7.0,63,0.00,,,0.01,Wunderground v.1.15,2013-06-12 19:30:00,
2013-06-12 15:31:00,69.1,56.8,29.74,WNW,297,2.0,7.0,65,0.00,,,0.01,Wunderground v.1.15,2013-06-12 19:31:00,
2013-06-12 15:32:00,69.0,56.7,29.74,NW,311,6.0,11.0,65,0.00,,,0.01,Wunderground v.1.15,2013-06-12 19:32:00,
2013-06-12 15:33:00,69.0,55.9,29.73,NNE,21,6.0,11.0,63,0.00,,,0.01,Wunderground v.1.15,2013-06-12 19:33:00,
2013-06-12 15:34:00,68.9,56.2,29.74,ENE,57,3.0,11.0,64,0.00,,,0.01,Wunderground v.1.15,2013-06-12 19:34:00,
2013-06-12 15:35:00,68.8,56.6,29.74,ESE,115,6.0,11.0,65,0.00,,,0.01,Wunderground v.1.15,2013-06-12 19:35:00,
2013-06-12 15:36:00,68.8,56.6,29.73,NW,323,3.0,11.0,65,0.00,,,0.01,Wunderground v.1.15,2013-06-12 19:36:00,
2013-06-12 15:37:00,68.7,56.5,29.74,ESE,117,8.0,11.0,65,0.00,,,0.01,Wunderground v.1.15,2013-06-12 19:37:00,
2013-06-12 15:38:00,68.7,56.5,29.73,WNW,287,4.0,11.0,65,0.00,,,0.01,Wunderground v.1.15,2013-06-12 19:38:00,
2013-06-12 15:39:00,68.6,55.5,29.73,NE,56,6.0,11.0,63,0.00,,,0.01,Wunderground v.1.15,2013-06-12 19:39:00,
2013-06-12 15:40:00,68.6,56.8,29.73,SE,125,6.0,10.0,66,0.00,,,0.01,Wunderground v.1.15,2013-06-12 19:40:00,
2013-06-12 15:41:00,68.6,56.8,29.73,NE,36,5.0,10.0,66,0.00,,,0.01,Wunderground v.1.15,2013-06-12 19:41:00,
2013-06-12 15:42:00,68.6,56.8,29.73,ESE,110,3.0,10.0,66,0.00,,,0.01,Wunderground v.1.15,2013-06-12 19:42:00,
2013-06-12 15:43:00,68.6,56.8,29.73,ENE,73,4.0,10.0,66,0.00,,,0.01,Wunderground v.1.15,2013-06-12 19:43:00,
2013-06-12 15:44:00,68.5,55.4,29.73,NE,46,3.0,10.0,63,0.00,,,0.01,Wunderground v.1.15,2013-06-12 19:44:00,
2013-06-12 15:45:00,68.4,55.7,29.73,NW,308,2.0,10.0,64,0.00,,,0.01,Wunderground v.1.15,2013-06-12 19:45:00,
2013-06-12 15:46:00,68.3,55.6,29.73,NNW,327,2.0,10.0,64,0.00,,,0.01,Wunderground v.1.15,2013-06-12 19:46:00,
2013-06-12 15:47:00,68.4,57.4,29.73,ESE,122,3.0,10.0,68,0.00,,,0.01,Wunderground v.1.15,2013-06-12 19:47:00,
2013-06-12 15:48:00,68.4,57.0,29.73,East,100,2.0,10.0,67,0.00,,,0.01,Wunderground v.1.15,2013-06-12 19:48:00,
2013-06-12 15:49:00,68.5,57.1,29.73,North,5,4.0,10.0,67,0.00,,,0.01,Wunderground v.1.15,2013-06-12 19:49:00,
2013-06-12 15:51:00,68.8,57.8,29.73,East,79,3.0,4.0,68,0.00,,,0.01,Wunderground v.1.15,2013-06-12 19:51:00,
2013-06-12 15:52:00,69.2,58.2,29.73,NNW,332,3.0,5.0,68,0.00,,,0.01,Wunderground v.1.15,2013-06-12 19:52:00,
2013-06-12 15:54:00,69.4,58.0,29.73,ENE,75,2.0,5.0,67,0.00,,,0.01,Wunderground v.1.15,2013-06-12 19:54:00,
2013-06-12 15:56:00,69.7,57.8,29.73,East,86,4.0,8.0,66,0.00,,,0.01,Wunderground v.1.15,2013-06-12 19:56:00,
2013-06-12 15:57:00,69.7,57.4,29.73,NE,45,3.0,8.0,65,0.00,,,0.01,Wunderground v.1.15,2013-06-12 19:57:00,
2013-06-12 15:58:00,69.7,56.1,29.73,East,100,4.0,12.0,62,0.00,,,0.01,Wunderground v.1.15,2013-06-12 19:58:00,
2013-06-12 15:59:00,69.7,56.1,29.73,NE,49,4.0,12.0,62,0.00,,,0.01,Wunderground v.1.15,2013-06-12 19:59:00,
2013-06-12 16:00:00,69.4,55.8,29.73,East,98,3.0,12.0,62,0.00,,,0.01,Wunderground v.1.15,2013-06-12 20:00:00,
2013-06-12 16:01:00,69.1,56.0,29.73,ENE,59,5.0,7.0,63,0.00,,,0.01,Wunderground v.1.15,2013-06-12 20:01:00,
2013-06-12 16:02:00,69.0,55.9,29.73,NE,38,3.0,7.0,63,0.00,,,0.01,Wunderground v.1.15,2013-06-12 20:02:00,
2013-06-12 16:03:00,68.6,55.5,29.73,NNE,29,3.0,7.0,63,0.00,,,0.01,Wunderground v.1.15,2013-06-12 20:03:00,
2013-06-12 16:04:00,68.5,55.4,29.73,ENE,73,1.0,7.0,63,0.00,,,0.01,Wunderground v.1.15,2013-06-12 20:04:00,
2013-06-12 16:05:00,68.3,56.1,29.73,ENE,75,1.0,7.0,65,0.00,,,0.01,Wunderground v.1.15,2013-06-12 20:05:00,
2013-06-12 16:07:00,68.2,55.6,29.73,North,358,2.0,7.0,64,0.00,,,0.01,Wunderground v.1.15,2013-06-12 20:07:00,
2013-06-12 16:09:00,68.0,56.6,29.73,WNW,290,1.0,7.0,67,0.00,,,0.01,Wunderground v.1.15,2013-06-12 20:09:00,
2013-06-12 16:10:00,68.0,56.6,29.74,West,267,1.0,3.0,67,0.00,,,0.01,Wunderground v.1.15,2013-06-12 20:10:00,
2013-06-12 16:12:00,68.0,55.8,29.74,NNE,32,5.0,6.0,65,0.00,,,0.01,Wunderground v.1.15,2013-06-12 20:12:00,
2013-06-12 16:14:00,68.1,56.7,29.74,ESE,106,2.0,6.0,67,0.00,,,0.01,Wunderground v.1.15,2013-06-12 20:14:00,
2013-06-12 16:15:00,68.2,56.4,29.74,East,89,8.0,12.0,66,0.00,,,0.01,Wunderground v.1.15,2013-06-12 20:15:00,
2013-06-12 16:17:00,68.2,55.1,29.74,East,88,2.0,12.0,63,0.00,,,0.01,Wunderground v.1.15,2013-06-12 20:17:00,
2013-06-12 16:19:00,68.1,55.9,29.74,NNE,20,2.0,12.0,65,0.00,,,0.01,Wunderground v.1.15,2013-06-12 20:19:00,
2013-06-12 16:20:00,68.0,55.8,29.74,WNW,285,4.0,12.0,65,0.00,,,0.01,Wunderground v.1.15,2013-06-12 20:20:00,
2013-06-12 16:22:00,67.7,54.6,29.74,ENE,78,4.0,14.0,63,0.00,,,0.01,Wunderground v.1.15,2013-06-12 20:22:00,
2013-06-12 16:24:00,67.5,54.9,29.74,ESE,119,3.0,14.0,64,0.00,,,0.01,Wunderground v.1.15,2013-06-12 20:24:00,
2013-06-12 16:25:00,67.4,54.8,29.74,East,96,7.0,14.0,64,0.00,,,0.01,Wunderground v.1.15,2013-06-12 20:25:00,
2013-06-12 16:27:00,67.0,53.1,29.74,NNW,347,4.0,14.0,61,0.00,,,0.01,Wunderground v.1.15,2013-06-12 20:27:00,
2013-06-12 16:28:00,67.0,54.0,29.74,SE,130,2.0,14.0,63,0.00,,,0.01,Wunderground v.1.15,2013-06-12 20:28:00,
2013-06-12 16:30:00,66.9,53.9,29.74,East,101,6.0,14.0,63,0.00,,,0.01,Wunderground v.1.15,2013-06-12 20:30:00,
2013-06-12 16:31:00,66.9,53.5,29.74,ENE,59,5.0,9.0,62,0.00,,,0.01,Wunderground v.1.15,2013-06-12 20:31:00,
2013-06-12 16:32:00,67.1,54.5,29.74,NNE,31,3.0,10.0,64,0.00,,,0.01,Wunderground v.1.15,2013-06-12 20:32:00,
2013-06-12 16:33:00,67.2,54.2,29.74,NNW,347,2.0,10.0,63,0.00,,,0.01,Wunderground v.1.15,2013-06-12 20:33:00,
2013-06-12 16:35:00,67.7,55.9,29.74,NNE,20,3.0,10.0,66,0.00,,,0.01,Wunderground v.1.15,2013-06-12 20:35:00,
2013-06-12 16:36:00,67.9,56.1,29.74,North,360,2.0,10.0,66,0.00,,,0.01,Wunderground v.1.15,2013-06-12 20:36:00,
2013-06-12 16:37:00,68.2,56.4,29.74,North,352,2.0,10.0,66,0.00,,,0.01,Wunderground v.1.15,2013-06-12 20:37:00,
2013-06-12 16:38:00,68.2,56.4,29.74,NNE,27,1.0,10.0,66,0.00,,,0.01,Wunderground v.1.15,2013-06-12 20:38:00,
2013-06-12 16:41:00,68.8,55.2,29.74,North,9,5.0,10.0,62,0.00,,,0.01,Wunderground v.1.15,2013-06-12 20:41:00,
2013-06-12 16:42:00,68.8,54.3,29.74,NNE,28,2.0,12.0,60,0.00,,,0.01,Wunderground v.1.15,2013-06-12 20:42:00,
2013-06-12 16:43:00,68.8,54.8,29.74,East,82,5.0,12.0,61,0.00,,,0.01,Wunderground v.1.15,2013-06-12 20:43:00,
2013-06-12 16:44:00,68.7,53.8,29.74,East,83,5.0,12.0,59,0.00,,,0.01,Wunderground v.1.15,2013-06-12 20:44:00,
2013-06-12 16:46:00,68.6,54.2,29.74,East,79,4.0,12.0,60,0.00,,,0.01,Wunderground v.1.15,2013-06-12 20:46:00,
2013-06-12 16:47:00,68.6,54.2,29.74,ENE,75,4.0,12.0,60,0.00,,,0.01,Wunderground v.1.15,2013-06-12 20:47:00,
2013-06-12 16:48:00,68.5,53.1,29.74,ENE,73,3.0,14.0,58,0.00,,,0.01,Wunderground v.1.15,2013-06-12 20:48:00,
2013-06-12 16:49:00,68.5,54.5,29.74,NW,326,5.0,14.0,61,0.00,,,0.01,Wunderground v.1.15,2013-06-12 20:49:00,
2013-06-12 16:51:00,68.6,55.1,29.74,ENE,72,3.0,11.0,62,0.00,,,0.01,Wunderground v.1.15,2013-06-12 20:51:00,
2013-06-12 16:52:00,68.6,54.2,29.74,ENE,66,9.0,11.0,60,0.00,,,0.01,Wunderground v.1.15,2013-06-12 20:52:00,
2013-06-12 16:53:00,68.5,53.6,29.74,SE,146,3.0,11.0,59,0.00,,,0.01,Wunderground v.1.15,2013-06-12 20:53:00,
2013-06-12 16:54:00,68.4,54.4,29.75,East,79,4.0,12.0,61,0.00,,,0.01,Wunderground v.1.15,2013-06-12 20:54:00,
2013-06-12 16:56:00,68.3,53.9,29.75,NE,37,5.0,12.0,60,0.00,,,0.01,Wunderground v.1.15,2013-06-12 20:56:00,
2013-06-12 16:57:00,68.3,53.9,29.74,North,6,4.0,12.0,60,0.00,,,0.01,Wunderground v.1.15,2013-06-12 20:57:00,
2013-06-12 16:58:00,68.3,54.8,29.75,NNE,28,2.0,12.0,62,0.00,,,0.01,Wunderground v.1.15,2013-06-12 20:58:00,
2013-06-12 16:59:00,68.3,54.3,29.75,ENE,63,5.0,12.0,61,0.00,,,0.01,Wunderground v.1.15,2013-06-12 20:59:00,
2013-06-12 17:01:00,68.4,54.0,29.75,WSW,253,3.0,9.0,60,0.00,,,0.01,Wunderground v.1.15,2013-06-12 21:01:00,
2013-06-12 17:03:00,68.5,54.1,29.75,NE,36,4.0,9.0,60,0.00,,,0.01,Wunderground v.1.15,2013-06-12 21:03:00,
2013-06-12 17:04:00,68.7,54.7,29.75,NNW,337,2.0,9.0,61,0.00,,,0.01,Wunderground v.1.15,2013-06-12 21:04:00,
2013-06-12 17:06:00,68.9,54.4,29.75,East,80,5.0,9.0,60,0.00,,,0.01,Wunderground v.1.15,2013-06-12 21:06:00,
2013-06-12 17:08:00,69.0,55.0,29.75,East,94,4.0,11.0,61,0.00,,,0.01,Wunderground v.1.15,2013-06-12 21:08:00,
2013-06-12 17:09:00,69.0,55.0,29.75,SE,128,5.0,11.0,61,0.00,,,0.01,Wunderground v.1.15,2013-06-12 21:09:00,
2013-06-12 17:11:00,68.7,53.3,29.75,NE,49,2.0,8.0,58,0.00,,,0.01,Wunderground v.1.15,2013-06-12 21:11:00,
2013-06-12 17:13:00,68.6,53.2,29.75,East,98,6.0,9.0,58,0.00,,,0.01,Wunderground v.1.15,2013-06-12 21:13:00,
2013-06-12 17:14:00,68.6,53.2,29.75,ENE,71,2.0,9.0,58,0.00,,,0.01,Wunderground v.1.15,2013-06-12 21:14:00,
2013-06-12 17:15:00,68.6,54.2,29.75,NE,52,6.0,9.0,60,0.00,,,0.01,Wunderground v.1.15,2013-06-12 21:15:00,
2013-06-12 17:17:00,68.4,54.0,29.75,North,5,2.0,10.0,60,0.00,,,0.01,Wunderground v.1.15,2013-06-12 21:17:00,
2013-06-12 17:19:00,68.2,53.8,29.75,SE,124,4.0,10.0,60,0.00,,,0.01,Wunderground v.1.15,2013-06-12 21:19:00,
2013-06-12 17:20:00,68.1,54.1,29.75,NE,55,3.0,10.0,61,0.00,,,0.01,Wunderground v.1.15,2013-06-12 21:20:00,
2013-06-12 17:22:00,67.8,53.9,29.75,East,80,2.0,7.0,61,0.00,,,0.01,Wunderground v.1.15,2013-06-12 21:22:00,
2013-06-12 17:24:00,67.5,53.6,29.75,NNW,335,2.0,7.0,61,0.00,,,0.01,Wunderground v.1.15,2013-06-12 21:24:00,
2013-06-12 17:25:00,67.3,53.4,29.75,ENE,72,2.0,7.0,61,0.00,,,0.01,Wunderground v.1.15,2013-06-12 21:25:00,
2013-06-12 17:28:00,66.9,53.5,29.75,SE,139,2.0,7.0,62,0.00,,,0.01,Wunderground v.1.15,2013-06-12 21:28:00,
2013-06-12 17:29:00,66.7,52.8,29.75,ENE,68,7.0,7.0,61,0.00,,,0.01,Wunderground v.1.15,2013-06-12 21:29:00,
2013-06-12 17:30:00,66.6,53.2,29.75,NE,51,5.0,7.0,62,0.00,,,0.01,Wunderground v.1.15,2013-06-12 21:30:00,
2013-06-12 17:33:00,66.2,53.2,29.76,East,93,3.0,10.0,63,0.00,,,0.01,Wunderground v.1.15,2013-06-12 21:33:00,
2013-06-12 17:34:00,66.1,52.7,29.76,East,82,3.0,10.0,62,0.00,,,0.01,Wunderground v.1.15,2013-06-12 21:34:00,
2013-06-12 17:35:00,66.0,53.5,29.76,NE,51,1.0,10.0,64,0.00,,,0.01,Wunderground v.1.15,2013-06-12 21:35:00,
2013-06-12 17:36:00,65.9,53.4,29.76,East,89,1.0,10.0,64,0.00,,,0.01,Wunderground v.1.15,2013-06-12 21:36:00,
2013-06-12 17:38:00,65.8,53.7,29.76,ENE,65,3.0,10.0,65,0.00,,,0.01,Wunderground v.1.15,2013-06-12 21:38:00,
2013-06-12 17:39:00,65.7,53.2,29.76,NE,56,2.0,10.0,64,0.00,,,0.01,Wunderground v.1.15,2013-06-12 21:39:00,
2013-06-12 17:40:00,65.7,53.2,29.76,NE,56,2.0,3.0,64,0.00,,,0.01,Wunderground v.1.15,2013-06-12 21:40:00,
2013-06-12 17:41:00,65.7,53.2,29.76,SE,131,3.0,5.0,64,0.00,,,0.01,Wunderground v.1.15,2013-06-12 21:41:00,
2013-06-12 17:44:00,65.6,53.1,29.76,WNW,293,3.0,7.0,64,0.00,,,0.01,Wunderground v.1.15,2013-06-12 21:44:00,
2013-06-12 17:45:00,65.5,52.6,29.76,NE,34,2.0,7.0,63,0.00,,,0.01,Wunderground v.1.15,2013-06-12 21:45:00,
2013-06-12 17:46:00,65.5,52.6,29.76,East,79,1.0,9.0,63,0.00,,,0.01,Wunderground v.1.15,2013-06-12 21:46:00,
2013-06-12 17:49:00,65.5,53.0,29.76,NNW,333,2.0,10.0,64,0.00,,,0.01,Wunderground v.1.15,2013-06-12 21:49:00,
2013-06-12 17:50:00,65.4,52.9,29.77,SE,124,1.0,10.0,64,0.00,,,0.01,Wunderground v.1.15,2013-06-12 21:50:00,
2013-06-12 17:51:00,65.4,53.3,29.77,WNW,291,1.0,4.0,65,0.00,,,0.01,Wunderground v.1.15,2013-06-12 21:51:00,
2013-06-12 17:54:00,65.4,53.3,29.77,NE,53,2.0,5.0,65,0.00,,,0.01,Wunderground v.1.15,2013-06-12 21:54:00,
2013-06-12 17:55:00,65.4,52.9,29.77,ENE,77,5.0,5.0,64,0.00,,,0.01,Wunderground v.1.15,2013-06-12 21:55:00,
2013-06-12 17:56:00,65.4,53.3,29.77,ENE,61,2.0,5.0,65,0.00,,,0.01,Wunderground v.1.15,2013-06-12 21:56:00,
2013-06-12 17:59:00,65.3,53.6,29.77,North,360,0.0,5.0,66,0.00,,,0.01,Wunderground v.1.15,2013-06-12 21:59:00,
2013-06-12 18:00:00,65.3,53.6,29.77,North,352,0.0,5.0,66,0.00,,,0.01,Wunderground v.1.15,2013-06-12 22:00:00,
2013-06-12 18:01:00,65.3,53.6,29.77,North,352,0.0,1.0,66,0.00,,,0.01,Wunderground v.1.15,2013-06-12 22:01:00,
2013-06-12 18:02:00,65.2,53.6,29.77,North,352,0.0,1.0,66,0.00,,,0.01,Wunderground v.1.15,2013-06-12 22:02:00,
2013-06-12 18:05:00,65.5,54.7,29.77,North,359,1.0,3.0,68,0.00,,,0.01,Wunderground v.1.15,2013-06-12 22:05:00,
2013-06-12 18:06:00,65.6,54.3,29.77,North,349,1.0,3.0,67,0.00,,,0.01,Wunderground v.1.15,2013-06-12 22:06:00,
2013-06-12 18:07:00,66.0,55.5,29.77,ENE,61,2.0,3.0,69,0.00,,,0.01,Wunderground v.1.15,2013-06-12 22:07:00,
2013-06-12 18:10:00,66.8,55.5,29.77,NNW,328,2.0,4.0,67,0.00,,,0.01,Wunderground v.1.15,2013-06-12 22:10:00,
2013-06-12 18:11:00,67.2,55.0,29.77,ESE,113,1.0,4.0,65,0.00,,,0.01,Wunderground v.1.15,2013-06-12 22:11:00,
2013-06-12 18:12:00,67.3,55.1,29.78,ESE,112,3.0,4.0,65,0.00,,,0.01,Wunderground v.1.15,2013-06-12 22:12:00,
2013-06-12 18:15:00,67.8,54.3,29.78,NE,43,2.0,6.0,62,0.00,,,0.01,Wunderground v.1.15,2013-06-12 22:15:00,
2013-06-12 18:16:00,67.9,54.4,29.78,SSE,150,1.0,6.0,62,0.00,,,0.01,Wunderground v.1.15,2013-06-12 22:16:00,
2013-06-12 18:17:00,68.1,55.0,29.78,NW,323,2.0,6.0,63,0.00,,,0.01,Wunderground v.1.15,2013-06-12 22:17:00,
2013-06-12 18:20:00,68.4,55.3,29.78,NW,312,1.0,2.0,63,0.00,,,0.01,Wunderground v.1.15,2013-06-12 22:20:00,
2013-06-12 18:21:00,68.4,54.4,29.78,North,352,1.0,5.0,61,0.00,,,0.01,Wunderground v.1.15,2013-06-12 22:21:00,
2013-06-12 18:22:00,68.5,54.1,29.78,East,91,4.0,5.0,60,0.00,,,0.01,Wunderground v.1.15,2013-06-12 22:22:00,
2013-06-12 18:25:00,68.8,54.3,29.78,North,5,1.0,5.0,60,0.00,,,0.01,Wunderground v.1.15,2013-06-12 22:25:00,
2013-06-12 18:26:00,68.9,54.4,29.78,East,89,1.0,5.0,60,0.00,,,0.01,Wunderground v.1.15,2013-06-12 22:26:00,
2013-06-12 18:27:00,69.0,55.4,29.79,ESE,107,1.0,5.0,62,0.00,,,0.01,Wunderground v.1.15,2013-06-12 22:27:00,
2013-06-12 18:30:00,69.5,55.9,29.78,NE,56,2.0,2.0,62,0.00,,,0.01,Wunderground v.1.15,2013-06-12 22:30:00,
2013-06-12 18:31:00,69.6,55.1,29.78,NNE,32,2.0,6.0,60,0.00,,,0.01,Wunderground v.1.15,2013-06-12 22:31:00,
2013-06-12 18:32:00,69.6,55.1,29.78,NE,42,2.0,6.0,60,0.00,,,0.01,Wunderground v.1.15,2013-06-12 22:32:00,
2013-06-12 18:33:00,69.7,54.7,29.78,ESE,108,1.0,6.0,59,0.00,,,0.01,Wunderground v.1.15,2013-06-12 22:33:00,
2013-06-12 18:35:00,70.1,56.0,29.79,North,3,1.0,6.0,61,0.00,,,0.01,Wunderground v.1.15,2013-06-12 22:35:00,
2013-06-12 18:36:00,70.2,55.7,29.78,ENE,71,2.0,6.0,60,0.00,,,0.01,Wunderground v.1.15,2013-06-12 22:36:00,
2013-06-12 18:37:00,70.2,56.1,29.79,NE,36,1.0,6.0,61,0.00,,,0.01,Wunderground v.1.15,2013-06-12 22:37:00,
2013-06-12 18:38:00,70.3,55.8,29.78,ENE,75,2.0,6.0,60,0.00,,,0.01,Wunderground v.1.15,2013-06-12 22:38:00,
2013-06-12 18:41:00,70.1,55.6,29.78,NNW,333,1.0,2.0,60,0.00,,,0.01,Wunderground v.1.15,2013-06-12 22:41:00,
2013-06-12 18:43:00,69.7,56.1,29.78,NNW,340,1.0,2.0,62,0.00,,,0.01,Wunderground v.1.15,2013-06-12 22:43:00,
2013-06-12 18:46:00,69.0,54.1,29.78,NNW,328,0.0,4.0,59,0.00,,,0.01,Wunderground v.1.15,2013-06-12 22:46:00,
2013-06-12 18:47:00,68.8,54.8,29.78,North,349,1.0,4.0,61,0.00,,,0.01,Wunderground v.1.15,2013-06-12 22:47:00,
2013-06-12 18:48:00,68.4,54.9,29.79,NW,315,4.0,4.0,62,0.00,,,0.01,Wunderground v.1.15,2013-06-12 22:48:00,
2013-06-12 18:49:00,68.4,54.9,29.79,ENE,77,2.0,6.0,62,0.00,,,0.01,Wunderground v.1.15,2013-06-12 22:49:00,
2013-06-12 18:52:00,67.9,55.3,29.79,NNW,340,4.0,5.0,64,0.00,,,0.01,Wunderground v.1.15,2013-06-12 22:52:00,
2013-06-12 18:53:00,67.7,54.6,29.79,ENE,76,3.0,6.0,63,0.00,,,0.01,Wunderground v.1.15,2013-06-12 22:53:00,
2013-06-12 18:54:00,67.7,54.6,29.79,WNW,294,2.0,6.0,63,0.00,,,0.01,Wunderground v.1.15,2013-06-12 22:54:00,
2013-06-12 18:57:00,67.7,55.1,29.79,NNE,28,0.0,6.0,64,0.00,,,0.01,Wunderground v.1.15,2013-06-12 22:57:00,
2013-06-12 18:58:00,67.8,54.7,29.79,WNW,291,0.0,6.0,63,0.00,,,0.01,Wunderground v.1.15,2013-06-12 22:58:00,
2013-06-12 18:59:00,67.9,54.8,29.79,East,82,2.0,6.0,63,0.00,,,0.01,Wunderground v.1.15,2013-06-12 22:59:00,
2013-06-12 19:02:00,68.0,54.5,29.79,ENE,70,1.0,8.0,62,0.00,,,0.01,Wunderground v.1.15,2013-06-12 23:02:00,
2013-06-12 19:03:00,68.1,54.6,29.79,NNE,27,3.0,8.0,62,0.00,,,0.01,Wunderground v.1.15,2013-06-12 23:03:00,
2013-06-12 19:04:00,68.0,54.5,29.79,NNE,25,0.0,8.0,62,0.00,,,0.01,Wunderground v.1.15,2013-06-12 23:04:00,
2013-06-12 19:07:00,68.1,55.0,29.80,SE,143,1.0,8.0,63,0.00,,,0.01,Wunderground v.1.15,2013-06-12 23:07:00,
2013-06-12 19:08:00,68.1,55.5,29.80,North,350,0.0,8.0,64,0.00,,,0.01,Wunderground v.1.15,2013-06-12 23:08:00,
2013-06-12 19:09:00,68.0,54.9,29.79,North,354,1.0,8.0,63,0.00,,,0.01,Wunderground v.1.15,2013-06-12 23:09:00,
2013-06-12 19:10:00,68.0,54.9,29.80,NW,321,1.0,8.0,63,0.00,,,0.01,Wunderground v.1.15,2013-06-12 23:10:00,
2013-06-12 19:12:00,67.7,55.1,29.80,NW,321,0.0,3.0,64,0.00,,,0.01,Wunderground v.1.15,2013-06-12 23:12:00,
2013-06-12 19:13:00,67.5,54.5,29.80,NW,320,2.0,4.0,63,0.00,,,0.01,Wunderground v.1.15,2013-06-12 23:13:00,
2013-06-12 19:14:00,67.3,54.3,29.80,ENE,75,1.0,4.0,63,0.00,,,0.01,Wunderground v.1.15,2013-06-12 23:14:00,
2013-06-12 19:15:00,67.1,54.5,29.80,ENE,75,0.0,4.0,64,0.00,,,0.01,Wunderground v.1.15,2013-06-12 23:15:00,
2013-06-12 19:17:00,66.5,53.9,29.79,NW,319,0.0,4.0,64,0.00,,,0.01,Wunderground v.1.15,2013-06-12 23:17:00,
2013-06-12 19:19:00,66.2,54.1,29.79,West,278,1.0,4.0,65,0.00,,,0.01,Wunderground v.1.15,2013-06-12 23:19:00,
2013-06-12 19:20:00,66.0,53.9,29.79,NNW,330,0.0,4.0,65,0.00,,,0.01,Wunderground v.1.15,2013-06-12 23:20:00,
2013-06-12 19:22:00,65.5,54.2,29.79,ENE,75,1.0,8.0,67,0.00,,,0.01,Wunderground v.1.15,2013-06-12 23:22:00,
2013-06-12 19:24:00,65.3,54.1,29.79,ESE,103,0.0,8.0,67,0.00,,,0.01,Wunderground v.1.15,2013-06-12 23:24:00,
2013-06-12 19:25:00,65.1,54.3,29.79,NNE,12,0.0,8.0,68,0.00,,,0.01,Wunderground v.1.15,2013-06-12 23:25:00,
2013-06-12 19:28:00,64.8,54.4,29.80,NNE,30,0.0,8.0,69,0.00,,,0.01,Wunderground v.1.15,2013-06-12 23:28:00,
2013-06-12 19:29:00,64.7,54.3,29.79,NNE,13,1.0,8.0,69,0.00,,,0.01,Wunderground v.1.15,2013-06-12 23:29:00,
2013-06-12 19:30:00,64.6,54.2,29.79,East,79,1.0,1.0,69,0.00,,,0.01,Wunderground v.1.15,2013-06-12 23:30:00,
2013-06-12 19:33:00,64.4,54.0,29.79,East,82,0.0,4.0,69,0.00,,,0.01,Wunderground v.1.15,2013-06-12 23:33:00,
2013-06-12 19:34:00,64.3,53.9,29.79,West,280,0.0,4.0,69,0.00,,,0.01,Wunderground v.1.15,2013-06-12 23:34:00,
2013-06-12 19:35:00,64.1,53.7,29.79,WNW,288,0.0,4.0,69,0.00,,,0.01,Wunderground v.1.15,2013-06-12 23:35:00,
2013-06-12 19:38:00,63.9,53.9,29.79,ENE,75,0.0,4.0,70,0.00,,,0.01,Wunderground v.1.15,2013-06-12 23:38:00,
2013-06-12 19:39:00,63.8,53.8,29.80,ENE,75,0.0,4.0,70,0.00,,,0.01,Wunderground v.1.15,2013-06-12 23:39:00,
2013-06-12 19:40:00,63.7,53.7,29.80,ENE,75,0.0,4.0,70,0.00,,,0.01,Wunderground v.1.15,2013-06-12 23:40:00,
2013-06-12 19:41:00,63.7,53.7,29.80,East,91,2.0,2.0,70,0.00,,,0.01,Wunderground v.1.15,2013-06-12 23:41:00,
2013-06-12 19:43:00,63.5,53.9,29.80,ESE,113,1.0,2.0,71,0.00,,,0.01,Wunderground v.1.15,2013-06-12 23:43:00,
2013-06-12 19:44:00,63.4,53.4,29.80,NE,50,0.0,2.0,70,0.00,,,0.01,Wunderground v.1.15,2013-06-12 23:44:00,
2013-06-12 19:45:00,63.4,53.8,29.80,North,11,0.0,2.0,71,0.00,,,0.01,Wunderground v.1.15,2013-06-12 23:45:00,
2013-06-12 19:46:00,63.3,53.7,29.80,North,4,0.0,2.0,71,0.00,,,0.01,Wunderground v.1.15,2013-06-12 23:46:00,
2013-06-12 19:48:00,63.3,54.1,29.80,NW,305,0.0,2.0,72,0.00,,,0.01,Wunderground v.1.15,2013-06-12 23:48:00,
2013-06-12 19:49:00,63.2,54.0,29.80,NW,307,0.0,2.0,72,0.00,,,0.01,Wunderground v.1.15,2013-06-12 23:49:00,
2013-06-12 19:50:00,63.2,54.0,29.80,NW,307,0.0,0.0,72,0.00,,,0.01,Wunderground v.1.15,2013-06-12 23:50:00,
2013-06-12 19:51:00,63.2,54.0,29.81,NW,307,0.0,0.0,72,0.00,,,0.01,Wunderground v.1.15,2013-06-12 23:51:00,
2013-06-12 19:53:00,63.0,53.8,29.81,ENE,65,0.0,1.0,72,0.00,,,0.01,Wunderground v.1.15,2013-06-12 23:53:00,
2013-06-12 19:54:00,63.0,53.8,29.81,SSE,158,1.0,3.0,72,0.00,,,0.01,Wunderground v.1.15,2013-06-12 23:54:00,
2013-06-12 19:55:00,63.0,53.8,29.81,ENE,61,1.0,3.0,72,0.00,,,0.01,Wunderground v.1.15,2013-06-12 23:55:00,
2013-06-12 19:56:00,63.0,53.8,29.81,ENE,60,0.0,3.0,72,0.00,,,0.01,Wunderground v.1.15,2013-06-12 23:56:00,
2013-06-12 19:59:00,63.0,53.8,29.81,NE,34,0.0,3.0,72,0.00,,,0.01,Wunderground v.1.15,2013-06-12 23:59:00,
2013-06-12 20:01:00,63.0,53.4,29.81,NE,34,0.0,0.0,71,0.00,,,0.01,Wunderground v.1.15,2013-06-13 00:01:00,
2013-06-12 20:04:00,62.9,53.4,29.81,ESE,104,0.0,1.0,71,0.00,,,0.01,Wunderground v.1.15,2013-06-13 00:04:00,
2013-06-12 20:05:00,62.9,53.4,29.81,ESE,105,0.0,1.0,71,0.00,,,0.01,Wunderground v.1.15,2013-06-13 00:05:00,
2013-06-12 20:06:00,62.9,53.4,29.81,NNW,342,0.0,1.0,71,0.00,,,0.01,Wunderground v.1.15,2013-06-13 00:06:00,
2013-06-12 20:09:00,62.9,53.4,29.81,NNW,343,0.0,1.0,71,0.00,,,0.01,Wunderground v.1.15,2013-06-13 00:09:00,
2013-06-12 20:10:00,62.9,53.4,29.81,NNW,343,0.0,1.0,71,0.00,,,0.01,Wunderground v.1.15,2013-06-13 00:10:00,
2013-06-12 20:11:00,62.9,53.4,29.81,NNW,343,0.0,0.0,71,0.00,,,0.01,Wunderground v.1.15,2013-06-13 00:11:00,
2013-06-12 20:12:00,62.9,53.4,29.81,NNW,343,0.0,0.0,71,0.00,,,0.01,Wunderground v.1.15,2013-06-13 00:12:00,
2013-06-12 20:14:00,62.8,53.3,29.81,NNW,343,0.0,0.0,71,0.00,,,0.01,Wunderground v.1.15,2013-06-13 00:14:00,
2013-06-12 20:15:00,62.8,53.3,29.81,NNW,343,0.0,0.0,71,0.00,,,0.01,Wunderground v.1.15,2013-06-13 00:15:00,
2013-06-12 20:16:00,62.8,53.6,29.81,NNW,343,0.0,0.0,72,0.00,,,0.01,Wunderground v.1.15,2013-06-13 00:16:00,
2013-06-12 20:17:00,62.8,53.6,29.81,NNW,343,0.0,0.0,72,0.00,,,0.01,Wunderground v.1.15,2013-06-13 00:17:00,
2013-06-12 20:19:00,62.7,53.5,29.81,NNW,343,0.0,0.0,72,0.00,,,0.01,Wunderground v.1.15,2013-06-13 00:19:00,
2013-06-12 20:20:00,62.7,53.5,29.81,NNW,343,0.0,0.0,72,0.00,,,0.01,Wunderground v.1.15,2013-06-13 00:20:00,
2013-06-12 20:21:00,62.6,53.4,29.81,NNW,343,0.0,0.0,72,0.00,,,0.01,Wunderground v.1.15,2013-06-13 00:21:00,
2013-06-12 20:22:00,62.6,53.4,29.81,NNW,343,0.0,0.0,72,0.00,,,0.01,Wunderground v.1.15,2013-06-13 00:22:00,
2013-06-12 20:25:00,62.4,53.6,29.82,NNW,343,0.0,1.0,73,0.00,,,0.01,Wunderground v.1.15,2013-06-13 00:25:00,
2013-06-12 20:27:00,62.2,53.4,29.82,NNW,343,0.0,1.0,73,0.00,,,0.01,Wunderground v.1.15,2013-06-13 00:27:00,
2013-06-12 20:28:00,62.1,53.3,29.82,NNW,343,0.0,1.0,73,0.00,,,0.01,Wunderground v.1.15,2013-06-13 00:28:00,
2013-06-12 20:30:00,61.9,53.1,29.82,NNW,343,0.0,0.0,73,0.00,,,0.01,Wunderground v.1.15,2013-06-13 00:30:00,
2013-06-12 20:32:00,61.7,53.3,29.82,NNW,343,0.0,0.0,74,0.00,,,0.01,Wunderground v.1.15,2013-06-13 00:32:00,
2013-06-12 20:33:00,61.6,53.2,29.82,NNW,343,0.0,0.0,74,0.00,,,0.01,Wunderground v.1.15,2013-06-13 00:33:00,
2013-06-12 20:36:00,61.4,53.0,29.82,NNW,343,0.0,0.0,74,0.00,,,0.01,Wunderground v.1.15,2013-06-13 00:36:00,
2013-06-12 20:37:00,61.2,53.2,29.82,NNW,343,0.0,0.0,75,0.00,,,0.01,Wunderground v.1.15,2013-06-13 00:37:00,
2013-06-12 20:39:00,61.0,53.0,29.82,NNW,343,0.0,1.0,75,0.00,,,0.01,Wunderground v.1.15,2013-06-13 00:39:00,
2013-06-12 20:41:00,60.8,52.8,29.82,NNE,20,0.0,0.0,75,0.00,,,0.01,Wunderground v.1.15,2013-06-13 00:41:00,
2013-06-12 20:42:00,60.7,53.1,29.82,NNE,20,0.0,0.0,76,0.00,,,0.01,Wunderground v.1.15,2013-06-13 00:42:00,
2013-06-12 20:43:00,60.6,53.0,29.82,NNE,20,0.0,0.0,76,0.00,,,0.01,Wunderground v.1.15,2013-06-13 00:43:00,
2013-06-12 20:44:00,60.5,52.9,29.82,NNE,20,0.0,0.0,76,0.00,,,0.01,Wunderground v.1.15,2013-06-13 00:44:00,
2013-06-12 20:46:00,60.3,52.7,29.82,NNE,20,0.0,1.0,76,0.00,,,0.01,Wunderground v.1.15,2013-06-13 00:46:00,
2013-06-12 20:48:00,60.2,53.0,29.82,NNE,20,0.0,1.0,77,0.00,,,0.01,Wunderground v.1.15,2013-06-13 00:48:00,
2013-06-12 20:49:00,60.0,53.1,29.83,NNE,20,0.0,1.0,78,0.00,,,0.01,Wunderground v.1.15,2013-06-13 00:49:00,
2013-06-12 20:51:00,59.8,52.9,29.82,NNE,20,0.0,0.0,78,0.00,,,0.01,Wunderground v.1.15,2013-06-13 00:51:00,
2013-06-12 20:52:00,59.8,52.9,29.83,NNE,20,0.0,0.0,78,0.00,,,0.01,Wunderground v.1.15,2013-06-13 00:52:00,
2013-06-12 20:53:00,59.7,52.8,29.82,NNE,20,0.0,0.0,78,0.00,,,0.01,Wunderground v.1.15,2013-06-13 00:53:00,
2013-06-12 20:55:00,59.4,52.5,29.83,NNE,20,0.0,0.0,78,0.00,,,0.01,Wunderground v.1.15,2013-06-13 00:55:00,
2013-06-12 20:56:00,59.3,52.4,29.83,NNE,20,0.0,0.0,78,0.00,,,0.01,Wunderground v.1.15,2013-06-13 00:56:00,
2013-06-12 20:57:00,59.2,52.3,29.83,NNE,20,0.0,0.0,78,0.00,,,0.01,Wunderground v.1.15,2013-06-13 00:57:00,
2013-06-12 20:58:00,59.1,52.6,29.83,NNE,20,0.0,0.0,79,0.00,,,0.01,Wunderground v.1.15,2013-06-13 00:58:00,
2013-06-12 21:00:00,59.0,52.5,29.83,NNE,20,0.0,0.0,79,0.00,,,0.01,Wunderground v.1.15,2013-06-13 01:00:00,
2013-06-12 21:02:00,58.7,52.2,29.83,NNE,20,0.0,0.0,79,0.00,,,0.01,Wunderground v.1.15,2013-06-13 01:02:00,
2013-06-12 21:03:00,58.6,52.4,29.83,NNE,20,0.0,0.0,80,0.00,,,0.01,Wunderground v.1.15,2013-06-13 01:03:00,
2013-06-12 21:05:00,58.5,52.4,29.83,NNE,20,0.0,0.0,80,0.00,,,0.01,Wunderground v.1.15,2013-06-13 01:05:00,
2013-06-12 21:07:00,58.3,52.5,29.82,NNE,20,0.0,0.0,81,0.00,,,0.01,Wunderground v.1.15,2013-06-13 01:07:00,
2013-06-12 21:08:00,58.3,52.5,29.82,NNE,21,0.0,0.0,81,0.00,,,0.01,Wunderground v.1.15,2013-06-13 01:08:00,
2013-06-12 21:10:00,58.2,52.4,29.83,NNE,21,0.0,0.0,81,0.00,,,0.01,Wunderground v.1.15,2013-06-13 01:10:00,
2013-06-12 21:12:00,58.0,52.2,29.83,NNE,22,0.0,0.0,81,0.00,,,0.01,Wunderground v.1.15,2013-06-13 01:12:00,
2013-06-12 21:13:00,58.0,52.2,29.83,NNE,22,0.0,0.0,81,0.00,,,0.01,Wunderground v.1.15,2013-06-13 01:13:00,
2013-06-12 21:14:00,58.0,52.2,29.83,NNE,21,0.0,0.0,81,0.00,,,0.01,Wunderground v.1.15,2013-06-13 01:14:00,
2013-06-12 21:15:00,57.9,52.1,29.83,NNE,21,0.0,0.0,81,0.00,,,0.01,Wunderground v.1.15,2013-06-13 01:15:00,
2013-06-12 21:18:00,57.7,52.2,29.83,NNE,21,0.0,0.0,82,0.00,,,0.01,Wunderground v.1.15,2013-06-13 01:18:00,
2013-06-12 21:19:00,57.7,52.2,29.83,NNE,22,0.0,0.0,82,0.00,,,0.01,Wunderground v.1.15,2013-06-13 01:19:00,
2013-06-12 21:21:00,57.6,52.1,29.84,NNE,21,0.0,0.0,82,0.00,,,0.01,Wunderground v.1.15,2013-06-13 01:21:00,
2013-06-12 21:23:00,57.5,52.4,29.84,NNE,22,0.0,0.0,83,0.00,,,0.01,Wunderground v.1.15,2013-06-13 01:23:00,
2013-06-12 21:24:00,57.5,52.4,29.84,NNE,22,0.0,0.0,83,0.00,,,0.01,Wunderground v.1.15,2013-06-13 01:24:00,
2013-06-12 21:26:00,57.3,52.2,29.84,NNE,21,0.0,0.0,83,0.00,,,0.01,Wunderground v.1.15,2013-06-13 01:26:00,
2013-06-12 21:28:00,57.1,52.0,29.84,NNE,22,0.0,0.0,83,0.00,,,0.01,Wunderground v.1.15,2013-06-13 01:28:00,
2013-06-12 21:29:00,57.1,52.0,29.84,NNE,22,0.0,0.0,83,0.00,,,0.01,Wunderground v.1.15,2013-06-13 01:29:00,
2013-06-12 21:31:00,57.0,52.2,29.84,NNE,22,0.0,0.0,84,0.00,,,0.01,Wunderground v.1.15,2013-06-13 01:31:00,
2013-06-12 21:33:00,56.9,52.1,29.84,NNE,21,0.0,1.0,84,0.00,,,0.01,Wunderground v.1.15,2013-06-13 01:33:00,
2013-06-12 21:34:00,56.9,52.1,29.84,NNE,21,0.0,1.0,84,0.00,,,0.01,Wunderground v.1.15,2013-06-13 01:34:00,
2013-06-12 21:37:00,56.8,52.0,29.84,NNE,21,0.0,1.0,84,0.00,,,0.01,Wunderground v.1.15,2013-06-13 01:37:00,
2013-06-12 21:38:00,56.8,52.0,29.84,NNE,22,0.0,1.0,84,0.00,,,0.01,Wunderground v.1.15,2013-06-13 01:38:00,
2013-06-12 21:39:00,56.8,52.0,29.84,NNE,22,0.0,1.0,84,0.00,,,0.01,Wunderground v.1.15,2013-06-13 01:39:00,
2013-06-12 21:42:00,56.7,52.2,29.84,NNE,22,0.0,0.0,85,0.00,,,0.01,Wunderground v.1.15,2013-06-13 01:42:00,
2013-06-12 21:43:00,56.7,52.2,29.84,NNE,22,0.0,0.0,85,0.00,,,0.01,Wunderground v.1.15,2013-06-13 01:43:00,
2013-06-12 21:44:00,56.7,52.2,29.84,NNE,21,0.0,0.0,85,0.00,,,0.01,Wunderground v.1.15,2013-06-13 01:44:00,
2013-06-12 21:47:00,56.6,52.1,29.84,NNE,22,0.0,0.0,85,0.00,,,0.01,Wunderground v.1.15,2013-06-13 01:47:00,
2013-06-12 21:48:00,56.6,52.1,29.84,NNE,19,0.0,0.0,85,0.00,,,0.01,Wunderground v.1.15,2013-06-13 01:48:00,
2013-06-12 21:49:00,56.5,52.0,29.84,NNE,18,0.0,0.0,85,0.00,,,0.01,Wunderground v.1.15,2013-06-13 01:49:00,
2013-06-12 21:50:00,56.5,52.4,29.84,NNE,18,0.0,0.0,86,0.00,,,0.01,Wunderground v.1.15,2013-06-13 01:50:00,
2013-06-12 21:52:00,56.3,52.2,29.84,NNE,18,0.0,1.0,86,0.00,,,0.01,Wunderground v.1.15,2013-06-13 01:52:00,
2013-06-12 21:53:00,56.2,52.1,29.84,NNE,19,0.0,1.0,86,0.00,,,0.01,Wunderground v.1.15,2013-06-13 01:53:00,
2013-06-12 21:54:00,56.1,52.0,29.84,NNE,18,1.0,1.0,86,0.00,,,0.01,Wunderground v.1.15,2013-06-13 01:54:00,
2013-06-12 21:55:00,56.1,52.0,29.84,NNE,18,0.0,1.0,86,0.00,,,0.01,Wunderground v.1.15,2013-06-13 01:55:00,
2013-06-12 21:57:00,55.8,52.0,29.84,North,5,0.0,1.0,87,0.00,,,0.01,Wunderground v.1.15,2013-06-13 01:57:00,
2013-06-12 21:58:00,55.8,52.0,29.84,North,4,0.0,1.0,87,0.00,,,0.01,Wunderground v.1.15,2013-06-13 01:58:00,
2013-06-12 21:59:00,55.7,51.9,29.84,North,6,0.0,1.0,87,0.00,,,0.01,Wunderground v.1.15,2013-06-13 01:59:00,
2013-06-12 22:00:00,55.7,51.9,29.84,North,6,0.0,1.0,87,0.00,,,0.01,Wunderground v.1.15,2013-06-13 02:00:00,
2013-06-12 22:03:00,55.7,51.9,29.84,North,4,0.0,1.0,87,0.00,,,0.01,Wunderground v.1.15,2013-06-13 02:03:00,
2013-06-12 22:05:00,55.6,51.8,29.84,North,3,0.0,1.0,87,0.00,,,0.01,Wunderground v.1.15,2013-06-13 02:05:00,
2013-06-12 22:08:00,55.6,51.8,29.84,North,3,0.0,1.0,87,0.00,,,0.01,Wunderground v.1.15,2013-06-13 02:08:00,
2013-06-12 22:09:00,55.6,51.8,29.84,North,10,0.0,1.0,87,0.00,,,0.01,Wunderground v.1.15,2013-06-13 02:09:00,
2013-06-12 22:10:00,55.6,51.8,29.84,North,10,0.0,1.0,87,0.00,,,0.01,Wunderground v.1.15,2013-06-13 02:10:00,
2013-06-12 22:13:00,55.7,51.9,29.84,ESE,104,0.0,2.0,87,0.00,,,0.01,Wunderground v.1.15,2013-06-13 02:13:00,
2013-06-12 22:14:00,55.7,51.9,29.84,ESE,104,0.0,2.0,87,0.00,,,0.01,Wunderground v.1.15,2013-06-13 02:14:00,
2013-06-12 22:15:00,55.8,52.0,29.84,ESE,104,0.0,2.0,87,0.00,,,0.01,Wunderground v.1.15,2013-06-13 02:15:00,
2013-06-12 22:16:00,55.8,52.0,29.84,ESE,104,0.0,2.0,87,0.00,,,0.01,Wunderground v.1.15,2013-06-13 02:16:00,
2013-06-12 22:19:00,55.9,51.8,29.84,East,89,0.0,2.0,86,0.00,,,0.01,Wunderground v.1.15,2013-06-13 02:19:00,
2013-06-12 22:20:00,55.9,51.8,29.84,East,89,0.0,2.0,86,0.00,,,0.01,Wunderground v.1.15,2013-06-13 02:20:00,
2013-06-12 22:21:00,55.9,51.8,29.84,East,89,0.0,0.0,86,0.00,,,0.01,Wunderground v.1.15,2013-06-13 02:21:00,
2013-06-12 22:24:00,55.9,51.8,29.84,East,89,0.0,0.0,86,0.00,,,0.01,Wunderground v.1.15,2013-06-13 02:24:00,
2013-06-12 22:25:00,55.9,51.8,29.84,East,89,0.0,0.0,86,0.00,,,0.01,Wunderground v.1.15,2013-06-13 02:25:00,
2013-06-12 22:26:00,55.9,51.8,29.84,East,89,0.0,0.0,86,0.00,,,0.01,Wunderground v.1.15,2013-06-13 02:26:00,
2013-06-12 22:29:00,55.9,51.8,29.84,ESE,106,0.0,1.0,86,0.00,,,0.01,Wunderground v.1.15,2013-06-13 02:29:00,
2013-06-12 22:30:00,55.9,51.8,29.84,ESE,105,0.0,1.0,86,0.00,,,0.01,Wunderground v.1.15,2013-06-13 02:30:00,
2013-06-12 22:31:00,55.9,51.5,29.84,ESE,106,0.0,0.0,85,0.00,,,0.01,Wunderground v.1.15,2013-06-13 02:31:00,
2013-06-12 22:34:00,55.8,51.4,29.84,ESE,105,0.0,0.0,85,0.00,,,0.01,Wunderground v.1.15,2013-06-13 02:34:00,
2013-06-12 22:35:00,55.8,51.4,29.84,ESE,105,0.0,0.0,85,0.00,,,0.01,Wunderground v.1.15,2013-06-13 02:35:00,
2013-06-12 22:36:00,55.8,51.4,29.85,ESE,105,0.0,1.0,85,0.00,,,0.01,Wunderground v.1.15,2013-06-13 02:36:00,
2013-06-12 22:37:00,55.7,51.3,29.85,ESE,106,0.0,1.0,85,0.00,,,0.01,Wunderground v.1.15,2013-06-13 02:37:00,
2013-06-12 22:39:00,55.7,51.3,29.84,ESE,105,0.0,1.0,85,0.00,,,0.01,Wunderground v.1.15,2013-06-13 02:39:00,
2013-06-12 22:40:00,55.7,51.3,29.84,ESE,105,0.0,1.0,85,0.00,,,0.01,Wunderground v.1.15,2013-06-13 02:40:00,
2013-06-12 22:41:00,55.6,51.5,29.85,ESE,105,0.0,0.0,86,0.00,,,0.01,Wunderground v.1.15,2013-06-13 02:41:00,
2013-06-12 22:42:00,55.6,51.5,29.84,ESE,105,0.0,0.0,86,0.00,,,0.01,Wunderground v.1.15,2013-06-13 02:42:00,
2013-06-12 22:45:00,55.6,51.5,29.85,ESE,106,0.0,1.0,86,0.00,,,0.01,Wunderground v.1.15,2013-06-13 02:45:00,
2013-06-12 22:46:00,55.6,51.5,29.85,ESE,106,0.0,1.0,86,0.00,,,0.01,Wunderground v.1.15,2013-06-13 02:46:00,
2013-06-12 22:47:00,55.6,51.5,29.85,ESE,105,0.0,1.0,86,0.00,,,0.01,Wunderground v.1.15,2013-06-13 02:47:00,
2013-06-12 22:50:00,55.6,51.5,29.85,ENE,73,0.0,1.0,86,0.00,,,0.01,Wunderground v.1.15,2013-06-13 02:50:00,
2013-06-12 22:51:00,55.5,51.4,29.85,ENE,72,0.0,1.0,86,0.00,,,0.01,Wunderground v.1.15,2013-06-13 02:51:00,
2013-06-12 22:52:00,55.5,51.4,29.85,East,83,2.0,2.0,86,0.00,,,0.01,Wunderground v.1.15,2013-06-13 02:52:00,
2013-06-12 22:55:00,55.6,51.2,29.85,East,98,1.0,2.0,85,0.00,,,0.01,Wunderground v.1.15,2013-06-13 02:55:00,
2013-06-12 22:56:00,55.7,51.3,29.85,East,83,0.0,2.0,85,0.00,,,0.01,Wunderground v.1.15,2013-06-13 02:56:00,
2013-06-12 22:58:00,55.8,51.4,29.85,East,91,0.0,2.0,85,0.00,,,0.01,Wunderground v.1.15,2013-06-13 02:58:00,
2013-06-12 23:00:00,56.0,51.6,29.85,ENE,77,0.0,0.0,85,0.00,,,0.01,Wunderground v.1.15,2013-06-13 03:00:00,
2013-06-12 23:01:00,56.1,51.7,29.85,East,82,0.0,1.0,85,0.00,,,0.01,Wunderground v.1.15,2013-06-13 03:01:00,
2013-06-12 23:02:00,56.1,51.3,29.85,East,82,1.0,1.0,84,0.00,,,0.01,Wunderground v.1.15,2013-06-13 03:02:00,
2013-06-12 23:03:00,56.2,51.4,29.85,East,82,0.0,1.0,84,0.00,,,0.01,Wunderground v.1.15,2013-06-13 03:03:00,
2013-06-12 23:05:00,56.3,51.5,29.85,East,79,0.0,1.0,84,0.00,,,0.01,Wunderground v.1.15,2013-06-13 03:05:00,
2013-06-12 23:06:00,56.3,51.5,29.85,SSE,147,1.0,1.0,84,0.00,,,0.01,Wunderground v.1.15,2013-06-13 03:06:00,
2013-06-12 23:07:00,56.3,51.5,29.85,SE,146,0.0,1.0,84,0.00,,,0.01,Wunderground v.1.15,2013-06-13 03:07:00,
2013-06-12 23:08:00,56.3,51.2,29.85,SE,146,0.0,1.0,83,0.00,,,0.01,Wunderground v.1.15,2013-06-13 03:08:00,
2013-06-12 23:10:00,56.3,51.2,29.85,SSE,147,0.0,0.0,83,0.00,,,0.01,Wunderground v.1.15,2013-06-13 03:10:00,
2013-06-12 23:11:00,56.3,51.2,29.85,SE,146,0.0,0.0,83,0.00,,,0.01,Wunderground v.1.15,2013-06-13 03:11:00,
2013-06-12 23:12:00,56.3,51.2,29.85,SE,146,0.0,0.0,83,0.00,,,0.01,Wunderground v.1.15,2013-06-13 03:12:00,
2013-06-12 23:13:00,56.3,51.2,29.85,SE,146,0.0,0.0,83,0.00,,,0.01,Wunderground v.1.15,2013-06-13 03:13:00,
2013-06-12 23:16:00,56.3,51.2,29.84,East,101,0.0,1.0,83,0.00,,,0.01,Wunderground v.1.15,2013-06-13 03:16:00,
2013-06-12 23:17:00,56.3,51.2,29.85,ESE,102,0.0,1.0,83,0.00,,,0.01,Wunderground v.1.15,2013-06-13 03:17:00,
2013-06-12 23:18:00,56.3,51.2,29.85,ESE,111,1.0,2.0,83,0.00,,,0.01,Wunderground v.1.15,2013-06-13 03:18:00,
2013-06-12 23:21:00,56.6,51.5,29.85,East,96,0.0,2.0,83,0.00,,,0.01,Wunderground v.1.15,2013-06-13 03:21:00,
2013-06-12 23:22:00,56.7,51.6,29.85,East,97,1.0,2.0,83,0.00,,,0.01,Wunderground v.1.15,2013-06-13 03:22:00,
2013-06-12 23:23:00,56.8,51.7,29.85,ESE,104,1.0,2.0,83,0.00,,,0.01,Wunderground v.1.15,2013-06-13 03:23:00,
2013-06-12 23:26:00,57.0,51.6,29.84,ENE,76,1.0,3.0,82,0.00,,,0.01,Wunderground v.1.15,2013-06-13 03:26:00,
2013-06-12 23:27:00,57.0,51.6,29.84,ENE,70,0.0,3.0,82,0.00,,,0.01,Wunderground v.1.15,2013-06-13 03:27:00,
2013-06-12 23:28:00,57.0,51.6,29.84,East,98,0.0,3.0,82,0.00,,,0.01,Wunderground v.1.15,2013-06-13 03:28:00,
2013-06-12 23:29:00,57.0,51.6,29.84,ENE,68,0.0,3.0,82,0.00,,,0.01,Wunderground v.1.15,2013-06-13 03:29:00,
2013-06-12 23:31:00,57.1,51.3,29.85,ENE,57,2.0,2.0,81,0.00,,,0.01,Wunderground v.1.15,2013-06-13 03:31:00,
2013-06-12 23:32:00,57.1,51.3,29.84,NE,37,0.0,2.0,81,0.00,,,0.01,Wunderground v.1.15,2013-06-13 03:32:00,
2013-06-12 23:33:00,57.1,51.3,29.84,NE,56,0.0,2.0,81,0.00,,,0.01,Wunderground v.1.15,2013-06-13 03:33:00,
2013-06-12 23:34:00,57.1,51.3,29.84,NE,56,0.0,2.0,81,0.00,,,0.01,Wunderground v.1.15,2013-06-13 03:34:00,
2013-06-12 23:37:00,57.0,51.2,29.84,NE,34,0.0,2.0,81,0.00,,,0.01,Wunderground v.1.15,2013-06-13 03:37:00,
2013-06-12 23:38:00,57.0,51.2,29.84,East,98,0.0,2.0,81,0.00,,,0.01,Wunderground v.1.15,2013-06-13 03:38:00,
2013-06-12 23:39:00,57.0,51.2,29.84,East,80,2.0,2.0,81,0.00,,,0.01,Wunderground v.1.15,2013-06-13 03:39:00,
2013-06-12 23:42:00,57.0,51.2,29.85,East,83,0.0,1.0,81,0.00,,,0.01,Wunderground v.1.15,2013-06-13 03:42:00,
2013-06-12 23:43:00,56.9,51.1,29.84,East,84,0.0,1.0,81,0.00,,,0.01,Wunderground v.1.15,2013-06-13 03:43:00,
2013-06-12 23:44:00,56.9,51.1,29.85,East,84,0.0,1.0,81,0.00,,,0.01,Wunderground v.1.15,2013-06-13 03:44:00,
2013-06-12 23:47:00,56.8,51.0,29.84,SE,141,0.0,1.0,81,0.00,,,0.01,Wunderground v.1.15,2013-06-13 03:47:00,
2013-06-12 23:48:00,56.8,51.0,29.85,SE,141,0.0,1.0,81,0.00,,,0.01,Wunderground v.1.15,2013-06-13 03:48:00,
2013-06-12 23:49:00,56.8,51.0,29.84,SE,141,0.0,1.0,81,0.00,,,0.01,Wunderground v.1.15,2013-06-13 03:49:00,
2013-06-12 23:52:00,56.7,50.9,29.84,East,91,0.0,2.0,81,0.00,,,0.01,Wunderground v.1.15,2013-06-13 03:52:00,
2013-06-12 23:53:00,56.7,50.9,29.84,East,92,0.0,2.0,81,0.00,,,0.01,Wunderground v.1.15,2013-06-13 03:53:00,
2013-06-12 23:54:00,56.7,50.9,29.84,East,93,0.0,2.0,81,0.00,,,0.01,Wunderground v.1.15,2013-06-13 03:54:00,
2013-06-12 23:57:00,56.7,50.9,29.84,East,96,0.0,2.0,81,0.00,,,0.01,Wunderground v.1.15,2013-06-13 03:57:00,
2013-06-12 23:58:00,56.8,51.0,29.84,East,96,0.0,2.0,81,0.00,,,0.01,Wunderground v.1.15,2013-06-13 03:58:00,
2013-06-12 23:59:00,56.7,50.9,29.84,East,96,0.0,2.0,81,0.00,,,0.01,Wunderground v.1.15,2013-06-13 03:59:00,